| time (UTC) | temp F | wind direction | speed MPH | gust MPH | rain 1hr in | rain 24hr in | rain mn in | humidity % | barometer mb |
| 20260505191758 | 83 | 154 | 0.0 | 7.0 | 0.00 | 0.01 | 0.01 | 51 | 1008.4 |
| 20260505191458 | 83 | 191 | 2.0 | 7.0 | 0.00 | 0.01 | 0.01 | 53 | 1008.3 |
| 20260505191359 | 83 | 191 | 1.0 | 7.0 | 0.00 | 0.01 | 0.01 | 53 | 1008.3 |
| 20260505191258 | 83 | 240 | 6.0 | 7.0 | 0.00 | 0.01 | 0.01 | 52 | 1008.3 |
| 20260505191158 | 83 | 139 | 3.0 | 7.0 | 0.00 | 0.01 | 0.01 | 51 | 1008.3 |
| 20260505190959 | 82 | 177 | 0.0 | 7.0 | 0.00 | 0.01 | 0.01 | 51 | 1008.2 |
| 20260505190858 | 82 | 177 | 2.0 | 7.0 | 0.00 | 0.01 | 0.01 | 50 | 1008.3 |
| 20260505190758 | 82 | 337 | 1.0 | 6.0 | 0.00 | 0.01 | 0.01 | 50 | 1008.3 |
| 20260505190658 | 82 | 337 | 0.0 | 6.0 | 0.00 | 0.01 | 0.01 | 50 | 1008.3 |
| 20260505190558 | 82 | 337 | 0.0 | 6.0 | 0.00 | 0.01 | 0.01 | 49 | 1008.3 |
| 20260505190500 | 82 | 331 | 1.0 | 6.0 | 0.00 | 0.01 | 0.01 | 49 | 1008.4 |
| 20260505190357 | 82 | 331 | 2.0 | 6.0 | 0.00 | 0.01 | 0.01 | 50 | 1008.4 |
| 20260505190258 | 82 | 331 | 0.0 | 6.0 | 0.00 | 0.01 | 0.01 | 49 | 1008.4 |
| 20260505190158 | 82 | 73 | 1.0 | 6.0 | 0.00 | 0.01 | 0.01 | 49 | 1008.5 |
| 20260505190058 | 82 | 77 | 2.0 | 6.0 | 0.00 | 0.01 | 0.01 | 49 | 1008.5 |
| 20260505190000 | 82 | 152 | 2.0 | 6.0 | 0.00 | 0.01 | 0.01 | 49 | 1008.5 |
| 20260505185857 | 82 | 141 | 0.0 | 5.0 | 0.00 | 0.01 | 0.01 | 49 | 1008.5 |
| 20260505185757 | 82 | 141 | 1.0 | 5.0 | 0.00 | 0.01 | 0.01 | 49 | 1008.4 |
| 20260505185558 | 82 | 140 | 0.0 | 5.0 | 0.00 | 0.01 | 0.01 | 49 | 1008.5 |
| 20260505185357 | 82 | 177 | 0.0 | 5.0 | 0.00 | 0.01 | 0.01 | 50 | 1008.5 |
| 20260505185057 | 82 | 235 | 2.0 | 5.0 | 0.00 | 0.01 | 0.01 | 49 | 1008.5 |
| 20260505184958 | 82 | 136 | 3.0 | 4.0 | 0.00 | 0.01 | 0.01 | 48 | 1008.4 |
| 20260505184856 | 82 | 136 | 2.0 | 4.0 | 0.00 | 0.01 | 0.01 | 48 | 1008.5 |
| 20260505184657 | 81 | 134 | 1.0 | 4.0 | 0.00 | 0.01 | 0.01 | 48 | 1008.5 |
| 20260505184558 | 81 | 183 | 3.0 | 4.0 | 0.00 | 0.01 | 0.01 | 48 | 1008.5 |
| 20260505184457 | 81 | 184 | 0.0 | 4.0 | 0.00 | 0.01 | 0.01 | 49 | 1008.5 |
| 20260505184357 | 81 | 184 | 0.0 | 4.0 | 0.00 | 0.01 | 0.01 | 49 | 1008.5 |
| 20260505184256 | 81 | 181 | 2.0 | 4.0 | 0.00 | 0.01 | 0.01 | 49 | 1008.5 |
| 20260505184157 | 81 | 180 | 2.0 | 4.0 | 0.00 | 0.01 | 0.01 | 49 | 1008.5 |
| 20260505184057 | 81 | 179 | 2.0 | 4.0 | 0.00 | 0.01 | 0.01 | 49 | 1008.5 |
| 20260505183957 | 81 | 203 | 2.0 | 4.0 | 0.00 | 0.01 | 0.01 | 49 | 1008.5 |
| 20260505183857 | 81 | 204 | 2.0 | 4.0 | 0.00 | 0.01 | 0.01 | 49 | 1008.5 |
| 20260505183757 | 81 | 204 | 0.0 | 3.0 | 0.00 | 0.01 | 0.01 | 49 | 1008.5 |
| 20260505183556 | 81 | 204 | 2.0 | 3.0 | 0.00 | 0.01 | 0.01 | 50 | 1008.5 |
| 20260505183457 | 81 | 200 | 1.0 | 3.0 | 0.00 | 0.01 | 0.01 | 50 | 1008.5 |
| 20260505183256 | 81 | 233 | 3.0 | 3.0 | 0.00 | 0.01 | 0.01 | 49 | 1008.6 |
| 20260505183157 | 81 | 181 | 2.0 | 3.0 | 0.00 | 0.01 | 0.01 | 47 | 1008.6 |
| 20260505182959 | 81 | 181 | 0.0 | 5.0 | 0.00 | 0.01 | 0.01 | 48 | 1008.7 |
| 20260505182857 | 81 | 203 | 0.0 | 7.0 | 0.00 | 0.01 | 0.01 | 48 | 1008.6 |
| 20260505182655 | 81 | 203 | 2.0 | 7.0 | 0.00 | 0.01 | 0.01 | 49 | 1008.7 |
| 20260505182558 | 81 | 203 | 2.0 | 7.0 | 0.00 | 0.01 | 0.01 | 50 | 1008.7 |
| 20260505182257 | 81 | 137 | 2.0 | 7.0 | 0.00 | 0.01 | 0.01 | 50 | 1008.6 |
| 20260505182157 | 81 | 136 | 3.0 | 7.0 | 0.00 | 0.01 | 0.01 | 50 | 1008.6 |
| 20260505182057 | 81 | 146 | 1.0 | 7.0 | 0.00 | 0.01 | 0.01 | 50 | 1008.6 |
| 20260505181959 | 81 | 167 | 4.0 | 7.0 | 0.00 | 0.01 | 0.01 | 50 | 1008.8 |
| 20260505181856 | 81 | 204 | 2.0 | 7.0 | 0.00 | 0.01 | 0.01 | 49 | 1008.8 |
| 20260505181758 | 81 | 216 | 2.0 | 7.0 | 0.00 | 0.01 | 0.01 | 49 | 1008.8 |
| 20260505181657 | 81 | 159 | 4.0 | 5.0 | 0.00 | 0.01 | 0.01 | 49 | 1008.8 |
| 20260505181556 | 81 | 148 | 5.0 | 5.0 | 0.00 | 0.01 | 0.01 | 48 | 1008.7 |
| 20260505181457 | 81 | 158 | 2.0 | 5.0 | 0.00 | 0.01 | 0.01 | 47 | 1008.7 |
| 20260505181358 | 81 | 158 | 2.0 | 5.0 | 0.00 | 0.01 | 0.01 | 47 | 1008.6 |
| 20260505181255 | 81 | 223 | 1.0 | 5.0 | 0.00 | 0.01 | 0.01 | 47 | 1008.7 |
| 20260505181157 | 81 | 233 | 1.0 | 5.0 | 0.00 | 0.01 | 0.01 | 47 | 1008.7 |
| 20260505181057 | 81 | 194 | 2.0 | 5.0 | 0.00 | 0.01 | 0.01 | 47 | 1008.7 |
| 20260505180959 | 81 | 194 | 0.0 | 5.0 | 0.00 | 0.01 | 0.01 | 47 | 1008.7 |
| 20260505180857 | 81 | 194 | 0.0 | 5.0 | 0.00 | 0.01 | 0.01 | 47 | 1008.7 |
| 20260505180458 | 81 | 183 | 1.0 | 5.0 | 0.00 | 0.01 | 0.01 | 46 | 1008.8 |
| 20260505180358 | 81 | 166 | 1.0 | 5.0 | 0.00 | 0.01 | 0.01 | 46 | 1008.8 |
| 20260505180257 | 81 | 206 | 2.0 | 5.0 | 0.00 | 0.01 | 0.01 | 46 | 1008.8 |
| 20260505180055 | 81 | 164 | 1.0 | 5.0 | 0.00 | 0.01 | 0.01 | 45 | 1008.9 |
| 20260505175857 | 81 | 176 | 1.0 | 6.0 | 0.00 | 0.01 | 0.01 | 44 | 1008.8 |
| 20260505175758 | 81 | 148 | 2.0 | 6.0 | 0.00 | 0.01 | 0.01 | 44 | 1008.8 |
| 20260505175658 | 81 | 148 | 5.0 | 6.0 | 0.00 | 0.01 | 0.01 | 43 | 1008.9 |
| 20260505175557 | 81 | 176 | 1.0 | 6.0 | 0.00 | 0.01 | 0.01 | 43 | 1008.8 |
| 20260505175357 | 81 | 176 | 1.0 | 6.0 | 0.00 | 0.01 | 0.01 | 41 | 1008.9 |
| 20260505175256 | 81 | 176 | 1.0 | 6.0 | 0.01 | 0.01 | 0.01 | 41 | 1008.9 |
| 20260505175157 | 81 | 176 | 0.0 | 6.0 | 0.01 | 0.01 | 0.01 | 41 | 1008.8 |
| 20260505175055 | 80 | 176 | 1.0 | 6.0 | 0.01 | 0.01 | 0.01 | 39 | 1008.9 |
| 20260505175000 | 80 | 201 | 2.0 | 5.0 | 0.01 | 0.01 | 0.01 | 39 | 1008.9 |
| 20260505174856 | 80 | 264 | 0.0 | 4.0 | 0.01 | 0.01 | 0.01 | 38 | 1009.0 |
| 20260505174756 | 80 | 264 | 0.0 | 4.0 | 0.01 | 0.01 | 0.01 | 38 | 1009.0 |
| 20260505174656 | 80 | 264 | 0.0 | 4.0 | 0.01 | 0.01 | 0.01 | 38 | 1009.0 |
| 20260505174559 | 80 | 264 | 0.0 | 4.0 | 0.01 | 0.01 | 0.01 | 39 | 1009.0 |
| 20260505174458 | 80 | 264 | 0.0 | 4.0 | 0.01 | 0.01 | 0.01 | 40 | 1009.0 |
| 20260505174358 | 80 | 264 | 0.0 | 4.0 | 0.01 | 0.01 | 0.01 | 40 | 1009.0 |
| 20260505174256 | 80 | 264 | 0.0 | 4.0 | 0.01 | 0.01 | 0.01 | 41 | 1009.0 |
| 20260505174158 | 80 | 264 | 1.0 | 4.0 | 0.01 | 0.01 | 0.01 | 40 | 1009.0 |
| 20260505174058 | 80 | 264 | 4.0 | 4.0 | 0.01 | 0.01 | 0.01 | 39 | 1009.0 |
| 20260505173958 | 80 | 21 | 2.0 | 4.0 | 0.01 | 0.01 | 0.01 | 38 | 1009.0 |
| 20260505173856 | 80 | 21 | 0.0 | 4.0 | 0.01 | 0.01 | 0.01 | 38 | 1009.0 |
| 20260505173758 | 80 | 184 | 0.0 | 3.0 | 0.01 | 0.01 | 0.01 | 37 | 1009.0 |
| 20260505173556 | 80 | 184 | 2.0 | 3.0 | 0.01 | 0.01 | 0.01 | 37 | 1009.0 |
| 20260505173456 | 80 | 184 | 1.0 | 3.0 | 0.01 | 0.01 | 0.01 | 37 | 1009.0 |
| 20260505173358 | 80 | 184 | 2.0 | 3.0 | 0.01 | 0.01 | 0.01 | 37 | 1008.9 |
| 20260505173257 | 80 | 184 | 0.0 | 3.0 | 0.01 | 0.01 | 0.01 | 37 | 1009.0 |
| 20260505173156 | 80 | 184 | 0.0 | 3.0 | 0.01 | 0.01 | 0.01 | 38 | 1009.0 |
| 20260505173058 | 80 | 184 | 1.0 | 3.0 | 0.01 | 0.01 | 0.01 | 38 | 1009.0 |
| 20260505173000 | 80 | 184 | 1.0 | 3.0 | 0.01 | 0.01 | 0.01 | 39 | 1009.0 |
| 20260505172858 | 80 | 184 | 1.0 | 3.0 | 0.01 | 0.01 | 0.01 | 39 | 1009.0 |
| 20260505172758 | 80 | 185 | 0.0 | 4.0 | 0.01 | 0.01 | 0.01 | 39 | 1009.1 |
| 20260505172558 | 80 | 185 | 0.0 | 4.0 | 0.01 | 0.01 | 0.01 | 39 | 1009.1 |
| 20260505172458 | 80 | 185 | 0.0 | 4.0 | 0.01 | 0.01 | 0.01 | 39 | 1009.1 |
| 20260505172357 | 80 | 187 | 1.0 | 4.0 | 0.01 | 0.01 | 0.01 | 39 | 1009.0 |
| 20260505172256 | 80 | 187 | 1.0 | 4.0 | 0.01 | 0.01 | 0.01 | 40 | 1009.0 |
| 20260505172158 | 80 | 188 | 0.0 | 4.0 | 0.01 | 0.01 | 0.01 | 40 | 1009.1 |
| 20260505172058 | 80 | 187 | 1.0 | 4.0 | 0.01 | 0.01 | 0.01 | 40 | 1009.1 |
| 20260505171958 | 80 | 186 | 2.0 | 4.0 | 0.01 | 0.01 | 0.01 | 40 | 1009.1 |
| 20260505171856 | 80 | 94 | 4.0 | 4.0 | 0.01 | 0.01 | 0.01 | 39 | 1009.2 |
| 20260505171658 | 80 | 92 | 0.0 | 4.0 | 0.01 | 0.01 | 0.01 | 38 | 1009.1 |
| 20260505171357 | 80 | 92 | 0.0 | 4.0 | 0.01 | 0.01 | 0.01 | 39 | 1009.1 |
| 20260505171159 | 80 | 92 | 1.0 | 4.0 | 0.01 | 0.01 | 0.01 | 39 | 1009.2 |
| 20260505171056 | 80 | 92 | 0.0 | 4.0 | 0.01 | 0.01 | 0.01 | 39 | 1009.2 |
| 20260505171000 | 80 | 92 | 0.0 | 4.0 | 0.01 | 0.01 | 0.01 | 38 | 1009.2 |
| 20260505170858 | 80 | 245 | 2.0 | 4.0 | 0.01 | 0.01 | 0.01 | 38 | 1009.2 |
| 20260505170759 | 80 | 257 | 0.0 | 4.0 | 0.01 | 0.01 | 0.01 | 39 | 1009.2 |
| 20260505170656 | 80 | 257 | 0.0 | 4.0 | 0.01 | 0.01 | 0.01 | 39 | 1009.2 |
| 20260505170557 | 80 | 257 | 1.0 | 4.0 | 0.01 | 0.01 | 0.01 | 39 | 1009.2 |
| 20260505170458 | 80 | 257 | 1.0 | 4.0 | 0.01 | 0.01 | 0.01 | 39 | 1009.2 |
| 20260505170358 | 80 | 257 | 0.0 | 6.0 | 0.01 | 0.01 | 0.01 | 39 | 1009.3 |
| 20260505170058 | 80 | 256 | 1.0 | 6.0 | 0.01 | 0.01 | 0.01 | 40 | 1009.3 |
| 20260505165956 | 80 | 256 | 3.0 | 6.0 | 0.01 | 0.01 | 0.01 | 41 | 1009.2 |
| 20260505165855 | 80 | 268 | 2.0 | 6.0 | 0.01 | 0.01 | 0.01 | 40 | 1009.3 |
| 20260505165758 | 80 | 268 | 0.0 | 6.0 | 0.01 | 0.01 | 0.01 | 40 | 1009.3 |
| 20260505165555 | 80 | 270 | 2.0 | 6.0 | 0.01 | 0.01 | 0.01 | 39 | 1009.3 |
| 20260505165357 | 80 | 174 | 0.0 | 4.0 | 0.01 | 0.01 | 0.01 | 39 | 1009.3 |
| 20260505165257 | 80 | 174 | 3.0 | 4.0 | 0.00 | 0.00 | 0.00 | 39 | 1009.3 |
| 20260505165156 | 80 | 174 | 1.0 | 4.0 | 0.00 | 0.00 | 0.00 | 38 | 1009.3 |
| 20260505165058 | 80 | 174 | 1.0 | 4.0 | 0.00 | 0.00 | 0.00 | 38 | 1009.3 |
| 20260505164857 | 80 | 181 | 0.0 | 4.0 | 0.00 | 0.00 | 0.00 | 38 | 1009.3 |
| 20260505164758 | 80 | 175 | 2.0 | 3.0 | 0.00 | 0.00 | 0.00 | 36 | 1009.3 |
| 20260505164655 | 80 | 175 | 0.0 | 3.0 | 0.00 | 0.00 | 0.00 | 36 | 1009.3 |
| 20260505164557 | 79 | 175 | 0.0 | 3.0 | 0.00 | 0.00 | 0.00 | 36 | 1009.3 |
| 20260505164357 | 79 | 175 | 0.0 | 3.0 | 0.00 | 0.00 | 0.00 | 36 | 1009.2 |
| 20260505164255 | 79 | 175 | 0.0 | 3.0 | 0.00 | 0.00 | 0.00 | 36 | 1009.2 |
| 20260505164157 | 79 | 175 | 0.0 | 3.0 | 0.00 | 0.00 | 0.00 | 36 | 1009.2 |
| 20260505163957 | 79 | 175 | 1.0 | 3.0 | 0.00 | 0.00 | 0.00 | 36 | 1009.2 |
| 20260505163855 | 79 | 181 | 2.0 | 4.0 | 0.00 | 0.00 | 0.00 | 35 | 1009.2 |
| 20260505163756 | 79 | 181 | 0.0 | 4.0 | 0.00 | 0.00 | 0.00 | 36 | 1009.2 |
| 20260505163658 | 79 | 181 | 1.0 | 4.0 | 0.00 | 0.00 | 0.00 | 35 | 1009.2 |
| 20260505163558 | 79 | 181 | 0.0 | 4.0 | 0.00 | 0.00 | 0.00 | 35 | 1009.2 |
| 20260505163455 | 79 | 181 | 1.0 | 4.0 | 0.00 | 0.00 | 0.00 | 36 | 1009.2 |
| 20260505163355 | 79 | 181 | 2.0 | 4.0 | 0.00 | 0.00 | 0.00 | 35 | 1009.2 |
| 20260505163257 | 79 | 181 | 0.0 | 4.0 | 0.00 | 0.00 | 0.00 | 35 | 1009.2 |
| 20260505163158 | 79 | 181 | 1.0 | 4.0 | 0.00 | 0.00 | 0.00 | 35 | 1009.2 |
| 20260505162957 | 79 | 176 | 0.0 | 5.0 | 0.00 | 0.00 | 0.00 | 34 | 1009.2 |
| 20260505162856 | 79 | 176 | 0.0 | 5.0 | 0.00 | 0.00 | 0.00 | 34 | 1009.2 |
| 20260505162758 | 79 | 176 | 0.0 | 5.0 | 0.00 | 0.00 | 0.00 | 35 | 1009.2 |
| 20260505162655 | 79 | 176 | 0.0 | 5.0 | 0.00 | 0.00 | 0.00 | 35 | 1009.2 |
| 20260505162556 | 79 | 176 | 0.0 | 5.0 | 0.00 | 0.00 | 0.00 | 35 | 1009.2 |
| 20260505162457 | 79 | 176 | 1.0 | 5.0 | 0.00 | 0.00 | 0.00 | 36 | 1009.1 |
| 20260505162357 | 79 | 176 | 2.0 | 5.0 | 0.00 | 0.00 | 0.00 | 36 | 1009.2 |
| 20260505162255 | 79 | 176 | 2.0 | 5.0 | 0.00 | 0.00 | 0.00 | 36 | 1009.1 |
| 20260505162156 | 79 | 172 | 3.0 | 5.0 | 0.00 | 0.00 | 0.00 | 34 | 1009.1 |
| 20260505161959 | 79 | 172 | 0.0 | 5.0 | 0.00 | 0.00 | 0.00 | 34 | 1009.1 |
| 20260505161857 | 79 | 171 | 1.0 | 5.0 | 0.00 | 0.00 | 0.00 | 34 | 1009.1 |
| 20260505161657 | 79 | 171 | 2.0 | 5.0 | 0.00 | 0.00 | 0.00 | 35 | 1009.1 |
| 20260505161557 | 79 | 245 | 2.0 | 6.0 | 0.00 | 0.00 | 0.00 | 34 | 1009.1 |
| 20260505161455 | 79 | 126 | 0.0 | 6.0 | 0.00 | 0.00 | 0.00 | 35 | 1009.2 |
| 20260505161356 | 79 | 126 | 1.0 | 6.0 | 0.00 | 0.00 | 0.00 | 35 | 1009.1 |
| 20260505161256 | 79 | 126 | 0.0 | 6.0 | 0.00 | 0.00 | 0.00 | 35 | 1009.1 |
| 20260505161157 | 79 | 126 | 1.0 | 6.0 | 0.00 | 0.00 | 0.00 | 35 | 1009.2 |
| 20260505161058 | 79 | 126 | 1.0 | 6.0 | 0.00 | 0.00 | 0.00 | 35 | 1009.1 |
| 20260505160957 | 79 | 125 | 2.0 | 6.0 | 0.00 | 0.00 | 0.00 | 35 | 1009.1 |
| 20260505160857 | 79 | 141 | 3.0 | 6.0 | 0.00 | 0.00 | 0.00 | 35 | 1009.2 |
| 20260505160755 | 79 | 183 | 1.0 | 4.0 | 0.00 | 0.00 | 0.00 | 35 | 1009.2 |
| 20260505160657 | 79 | 183 | 1.0 | 4.0 | 0.00 | 0.00 | 0.00 | 35 | 1009.1 |
| 20260505160555 | 79 | 182 | 1.0 | 4.0 | 0.00 | 0.00 | 0.00 | 34 | 1009.1 |
| 20260505160457 | 79 | 124 | 0.0 | 4.0 | 0.00 | 0.00 | 0.00 | 34 | 1009.2 |
| 20260505153356 | 78 | 206 | 1.0 | 4.0 | 0.00 | 0.00 | 0.00 | 33 | 1009.0 |
| 20260505153156 | 78 | 196 | 1.0 | 4.0 | 0.00 | 0.00 | 0.00 | 33 | 1008.9 |
| 20260505153058 | 78 | 196 | 0.0 | 4.0 | 0.00 | 0.00 | 0.00 | 33 | 1008.9 |
| 20260505153000 | 78 | 196 | 0.0 | 4.0 | 0.00 | 0.00 | 0.00 | 33 | 1008.9 |
| 20260505152856 | 78 | 196 | 2.0 | 6.0 | 0.00 | 0.00 | 0.00 | 32 | 1009.0 |
| 20260505152758 | 78 | 196 | 3.0 | 7.0 | 0.00 | 0.00 | 0.00 | 31 | 1008.9 |
| 20260505152657 | 78 | 187 | 1.0 | 7.0 | 0.00 | 0.00 | 0.00 | 32 | 1008.9 |
| 20260505152558 | 78 | 187 | 0.0 | 7.0 | 0.00 | 0.00 | 0.00 | 32 | 1008.9 |
| 20260505152357 | 78 | 229 | 1.0 | 7.0 | 0.00 | 0.00 | 0.00 | 32 | 1008.9 |
| 20260505152258 | 78 | 229 | 2.0 | 7.0 | 0.00 | 0.00 | 0.00 | 33 | 1008.9 |
| 20260505152159 | 78 | 232 | 0.0 | 7.0 | 0.00 | 0.00 | 0.00 | 33 | 1008.9 |
| 20260505152055 | 78 | 232 | 1.0 | 7.0 | 0.00 | 0.00 | 0.00 | 33 | 1008.9 |
| 20260505151958 | 78 | 177 | 2.0 | 7.0 | 0.00 | 0.00 | 0.00 | 32 | 1008.9 |
| 20260505151858 | 78 | 175 | 1.0 | 7.0 | 0.00 | 0.00 | 0.00 | 32 | 1008.9 |
| 20260505151759 | 78 | 130 | 4.0 | 6.0 | 0.00 | 0.00 | 0.00 | 31 | 1008.9 |
| 20260505151557 | 78 | 175 | 1.0 | 6.0 | 0.00 | 0.00 | 0.00 | 31 | 1008.9 |
| 20260505151458 | 78 | 174 | 2.0 | 6.0 | 0.00 | 0.00 | 0.00 | 31 | 1008.9 |
| 20260505151358 | 78 | 302 | 0.0 | 6.0 | 0.00 | 0.00 | 0.00 | 31 | 1008.9 |
| 20260505151159 | 78 | 250 | 1.0 | 6.0 | 0.00 | 0.00 | 0.00 | 31 | 1008.9 |
| 20260505151056 | 78 | 210 | 3.0 | 4.0 | 0.00 | 0.00 | 0.00 | 29 | 1008.9 |
| 20260505151000 | 78 | 288 | 2.0 | 4.0 | 0.00 | 0.00 | 0.00 | 28 | 1008.9 |
| 20260505150856 | 78 | 286 | 1.0 | 4.0 | 0.00 | 0.00 | 0.00 | 28 | 1008.9 |
| 20260505150757 | 78 | 287 | 2.0 | 4.0 | 0.00 | 0.00 | 0.00 | 28 | 1008.9 |
| 20260505150558 | 77 | 286 | 0.0 | 3.0 | 0.00 | 0.00 | 0.00 | 27 | 1008.9 |
| 20260505150457 | 77 | 287 | 0.0 | 7.0 | 0.00 | 0.00 | 0.00 | 27 | 1008.9 |
| 20260505150356 | 77 | 287 | 0.0 | 7.0 | 0.00 | 0.00 | 0.00 | 27 | 1008.9 |
| 20260505150258 | 77 | 287 | 2.0 | 7.0 | 0.00 | 0.00 | 0.00 | 27 | 1008.8 |
| 20260505150158 | 77 | 288 | 3.0 | 7.0 | 0.00 | 0.00 | 0.00 | 26 | 1008.8 |
| 20260505140457 | 75 | 149 | 0.0 | 5.0 | 0.00 | 0.00 | 0.00 | 5 | 1009.0 |
| 20260505140257 | 75 | 149 | 0.0 | 5.0 | 0.00 | 0.00 | 0.00 | 5 | 1009.0 |
| 20260505140158 | 75 | 149 | 1.0 | 5.0 | 0.00 | 0.00 | 0.00 | 5 | 1009.0 |
| 20260505130258 | 73 | 182 | 0.0 | 3.0 | 0.00 | 0.00 | 0.00 | 100 | 1008.9 |
| 20260505130156 | 72 | 182 | 1.0 | 3.0 | 0.00 | 0.00 | 0.00 | 100 | 1008.9 |
| 20260505124957 | 72 | 149 | 1.0 | 4.0 | 0.00 | 0.00 | 0.00 | 100 | 1008.7 |
| 20260505124856 | 72 | 150 | 1.0 | 4.0 | 0.00 | 0.00 | 0.00 | 100 | 1008.6 |
| 20260505124758 | 72 | 150 | 1.0 | 4.0 | 0.00 | 0.00 | 0.00 | 100 | 1008.6 |
| 20260505124656 | 72 | 150 | 0.0 | 4.0 | 0.00 | 0.00 | 0.00 | 100 | 1008.6 |
| 20260505124458 | 72 | 150 | 2.0 | 4.0 | 0.00 | 0.00 | 0.00 | 100 | 1008.6 |
| 20260505124356 | 72 | 173 | 0.0 | 4.0 | 0.00 | 0.00 | 0.00 | 100 | 1008.5 |
| 20260505124257 | 72 | 175 | 0.0 | 3.0 | 0.00 | 0.00 | 0.00 | 100 | 1008.6 |
| 20260505124158 | 72 | 175 | 0.0 | 3.0 | 0.00 | 0.00 | 0.00 | 100 | 1008.5 |
| 20260505124058 | 71 | 175 | 0.0 | 3.0 | 0.00 | 0.00 | 0.00 | 100 | 1008.6 |
| 20260505123857 | 71 | 175 | 1.0 | 3.0 | 0.00 | 0.00 | 0.00 | 100 | 1008.6 |
| 20260505123757 | 71 | 175 | 0.0 | 3.0 | 0.00 | 0.00 | 0.00 | 100 | 1008.6 |
| 20260505123656 | 71 | 174 | 0.0 | 3.0 | 0.00 | 0.00 | 0.00 | 100 | 1008.7 |
| 20260505123557 | 71 | 174 | 0.0 | 3.0 | 0.00 | 0.00 | 0.00 | 100 | 1008.7 |
| 20260505123456 | 71 | 174 | 0.0 | 3.0 | 0.00 | 0.00 | 0.00 | 100 | 1008.7 |
| 20260505123256 | 71 | 174 | 1.0 | 3.0 | 0.00 | 0.00 | 0.00 | 100 | 1008.6 |
| 20260505123156 | 71 | 174 | 0.0 | 3.0 | 0.00 | 0.00 | 0.00 | 100 | 1008.6 |
| 20260505123055 | 71 | 174 | 0.0 | 3.0 | 0.00 | 0.00 | 0.00 | 100 | 1008.5 |
| 20260505122857 | 71 | 174 | 0.0 | 2.0 | 0.00 | 0.00 | 0.00 | 100 | 1008.4 |
| 20260505122756 | 71 | 174 | 0.0 | 2.0 | 0.00 | 0.00 | 0.00 | 100 | 1008.4 |
| 20260505122656 | 71 | 174 | 0.0 | 2.0 | 0.00 | 0.00 | 0.00 | 100 | 1008.4 |
| 20260505122558 | 71 | 174 | 0.0 | 4.0 | 0.00 | 0.00 | 0.00 | 100 | 1008.3 |
| 20260505122357 | 71 | 174 | 0.0 | 4.0 | 0.00 | 0.00 | 0.00 | 100 | 1008.3 |
| 20260505122258 | 71 | 174 | 0.0 | 4.0 | 0.00 | 0.00 | 0.00 | 100 | 1008.3 |
| 20260505122158 | 71 | 174 | 0.0 | 4.0 | 0.00 | 0.00 | 0.00 | 100 | 1008.3 |
| 20260505122058 | 71 | 174 | 0.0 | 4.0 | 0.00 | 0.00 | 0.00 | 100 | 1008.3 |
| 20260505122000 | 71 | 174 | 1.0 | 4.0 | 0.00 | 0.00 | 0.00 | 100 | 1008.2 |
| 20260505121855 | 71 | 174 | 0.0 | 4.0 | 0.00 | 0.00 | 0.00 | 100 | 1008.2 |
| 20260505121758 | 71 | 174 | 0.0 | 4.0 | 0.00 | 0.00 | 0.00 | 100 | 1008.2 |
| 20260505121657 | 71 | 174 | 3.0 | 4.0 | 0.00 | 0.00 | 0.00 | 100 | 1008.2 |
| 20260505121556 | 71 | 174 | 1.0 | 4.0 | 0.00 | 0.00 | 0.00 | 100 | 1008.1 |
| 20260505121356 | 71 | 174 | 3.0 | 3.0 | 0.00 | 0.00 | 0.00 | 100 | 1008.1 |
| 20260505121258 | 71 | 175 | 0.0 | 2.0 | 0.00 | 0.00 | 0.00 | 100 | 1008.1 |
| 20260505121058 | 71 | 175 | 0.0 | 2.0 | 0.00 | 0.00 | 0.00 | 100 | 1008.0 |
| 20260505120959 | 71 | 175 | 1.0 | 3.0 | 0.00 | 0.00 | 0.00 | 100 | 1008.0 |
| 20260505120858 | 71 | 175 | 0.0 | 3.0 | 0.00 | 0.00 | 0.00 | 100 | 1008.0 |
| 20260505120756 | 71 | 175 | 0.0 | 3.0 | 0.00 | 0.00 | 0.00 | 100 | 1008.0 |
| 20260505120657 | 71 | 175 | 2.0 | 3.0 | 0.00 | 0.00 | 0.00 | 100 | 1008.0 |
| 20260505120458 | 71 | 175 | 0.0 | 3.0 | 0.00 | 0.00 | 0.00 | 100 | 1007.9 |
| 20260505120356 | 71 | 175 | 0.0 | 3.0 | 0.00 | 0.00 | 0.00 | 100 | 1007.9 |
| 20260505120255 | 71 | 175 | 0.0 | 3.0 | 0.00 | 0.00 | 0.00 | 100 | 1007.9 |
| 20260505120156 | 71 | 175 | 2.0 | 3.0 | 0.00 | 0.00 | 0.00 | 100 | 1008.0 |
| 20260505120058 | 71 | 177 | 1.0 | 2.0 | 0.00 | 0.00 | 0.00 | 100 | 1008.0 |
| 20260505115957 | 71 | 177 | 0.0 | 2.0 | 0.00 | 0.00 | 0.00 | 100 | 1008.1 |
| 20260505115856 | 71 | 177 | 1.0 | 2.0 | 0.00 | 0.00 | 0.00 | 100 | 1008.2 |
| 20260505115758 | 71 | 177 | 0.0 | 2.0 | 0.00 | 0.00 | 0.00 | 100 | 1008.2 |
| 20260505115556 | 71 | 177 | 0.0 | 2.0 | 0.00 | 0.00 | 0.00 | 100 | 1008.4 |
| 20260505115456 | 71 | 177 | 0.0 | 2.0 | 0.00 | 0.00 | 0.00 | 100 | 1008.4 |
| 20260505115358 | 71 | 177 | 0.0 | 2.0 | 0.00 | 0.00 | 0.00 | 100 | 1008.5 |
| 20260505115258 | 71 | 177 | 1.0 | 1.0 | 0.00 | 0.00 | 0.00 | 100 | 1008.5 |
| 20260505115056 | 71 | 177 | 0.0 | 1.0 | 0.00 | 0.00 | 0.00 | 100 | 1008.5 |
| 20260505114856 | 71 | 177 | 0.0 | 1.0 | 0.00 | 0.00 | 0.00 | 100 | 1008.5 |
| 20260505114758 | 71 | 177 | 0.0 | 1.0 | 0.00 | 0.00 | 0.00 | 100 | 1008.6 |
| 20260505114656 | 71 | 177 | 1.0 | 1.0 | 0.00 | 0.00 | 0.00 | 100 | 1008.6 |
| 20260505114557 | 71 | 177 | 0.0 | 1.0 | 0.00 | 0.00 | 0.00 | 100 | 1008.6 |
| 20260505114456 | 71 | 177 | 0.0 | 1.0 | 0.00 | 0.00 | 0.00 | 100 | 1008.6 |
| 20260505114358 | 71 | 177 | 0.0 | 0.0 | 0.00 | 0.00 | 0.00 | 100 | 1008.5 |
| 20260505114256 | 71 | 177 | 0.0 | 1.0 | 0.00 | 0.00 | 0.00 | 100 | 1008.6 |
| 20260505114057 | 71 | 177 | 0.0 | 1.0 | 0.00 | 0.00 | 0.00 | 100 | 1008.4 |
| 20260505113959 | 71 | 177 | 0.0 | 1.0 | 0.00 | 0.00 | 0.00 | 100 | 1008.4 |
| 20260505113858 | 71 | 177 | 0.0 | 1.0 | 0.00 | 0.00 | 0.00 | 100 | 1008.3 |
| 20260505113756 | 71 | 177 | 0.0 | 1.0 | 0.00 | 0.00 | 0.00 | 100 | 1008.3 |
| 20260505113658 | 71 | 177 | 0.0 | 1.0 | 0.00 | 0.00 | 0.00 | 100 | 1008.3 |
| 20260505113458 | 71 | 177 | 0.0 | 1.0 | 0.00 | 0.00 | 0.00 | 100 | 1008.3 |
| 20260505113359 | 71 | 177 | 0.0 | 1.0 | 0.00 | 0.00 | 0.00 | 100 | 1008.2 |
| 20260505113058 | 71 | 177 | 0.0 | 1.0 | 0.00 | 0.00 | 0.00 | 100 | 1008.2 |
| 20260505112757 | 71 | 177 | 0.0 | 1.0 | 0.00 | 0.00 | 0.00 | 100 | 1008.2 |
| 20260505112656 | 71 | 177 | 0.0 | 1.0 | 0.00 | 0.00 | 0.00 | 100 | 1008.2 |
| 20260505112556 | 71 | 177 | 1.0 | 1.0 | 0.00 | 0.00 | 0.00 | 100 | 1008.2 |
| 20260505112358 | 71 | 177 | 0.0 | 2.0 | 0.00 | 0.00 | 0.00 | 100 | 1008.1 |
| 20260505112256 | 71 | 177 | 0.0 | 2.0 | 0.00 | 0.00 | 0.00 | 100 | 1008.1 |
| 20260505112057 | 71 | 177 | 0.0 | 2.0 | 0.00 | 0.00 | 0.00 | 100 | 1008.1 |
| 20260505111959 | 71 | 177 | 0.0 | 2.0 | 0.00 | 0.00 | 0.00 | 100 | 1008.1 |
| 20260505111858 | 71 | 177 | 0.0 | 2.0 | 0.00 | 0.00 | 0.00 | 100 | 1008.1 |
| 20260505111758 | 71 | 177 | 0.0 | 2.0 | 0.00 | 0.00 | 0.00 | 100 | 1008.0 |
| 20260505111658 | 71 | 177 | 0.0 | 2.0 | 0.00 | 0.00 | 0.00 | 100 | 1008.0 |
| 20260505111558 | 71 | 177 | 1.0 | 2.0 | 0.00 | 0.00 | 0.00 | 100 | 1008.0 |
| 20260505111458 | 71 | 177 | 1.0 | 2.0 | 0.00 | 0.00 | 0.00 | 100 | 1008.0 |
| 20260505111358 | 71 | 177 | 0.0 | 2.0 | 0.00 | 0.00 | 0.00 | 100 | 1008.0 |
| 20260505111258 | 71 | 177 | 0.0 | 2.0 | 0.00 | 0.00 | 0.00 | 100 | 1008.0 |
| 20260505111158 | 71 | 177 | 0.0 | 2.0 | 0.00 | 0.00 | 0.00 | 100 | 1008.1 |
| 20260505111058 | 71 | 177 | 0.0 | 2.0 | 0.00 | 0.00 | 0.00 | 100 | 1008.2 |
| 20260505110957 | 71 | 177 | 0.0 | 2.0 | 0.00 | 0.00 | 0.00 | 100 | 1008.2 |
| 20260505110856 | 71 | 177 | 0.0 | 3.0 | 0.00 | 0.00 | 0.00 | 100 | 1008.2 |
| 20260505110758 | 71 | 177 | 0.0 | 3.0 | 0.00 | 0.00 | 0.00 | 100 | 1008.2 |
| 20260505110657 | 71 | 177 | 0.0 | 3.0 | 0.00 | 0.00 | 0.00 | 100 | 1008.2 |
| 20260505110556 | 71 | 177 | 0.0 | 3.0 | 0.00 | 0.00 | 0.00 | 100 | 1008.2 |
| 20260505110456 | 71 | 177 | 0.0 | 3.0 | 0.00 | 0.00 | 0.00 | 100 | 1008.2 |
| 20260505110356 | 71 | 177 | 0.0 | 3.0 | 0.00 | 0.00 | 0.00 | 100 | 1008.3 |
| 20260505110255 | 71 | 177 | 0.0 | 3.0 | 0.00 | 0.00 | 0.00 | 1 | 1008.4 |
| 20260505110156 | 71 | 177 | 1.0 | 3.0 | 0.00 | 0.00 | 0.00 | 1 | 1008.3 |
| 20260505102158 | 71 | 177 | 0.0 | 2.0 | 0.00 | 0.00 | 0.00 | 1 | 1008.1 |
| 20260505102056 | 71 | 177 | 0.0 | 2.0 | 0.00 | 0.00 | 0.00 | 1 | 1008.1 |
| 20260505101858 | 71 | 177 | 0.0 | 2.0 | 0.00 | 0.00 | 0.00 | 1 | 1008.1 |
| 20260505101757 | 71 | 177 | 0.0 | 2.0 | 0.00 | 0.00 | 0.00 | 1 | 1008.1 |
| 20260505101657 | 71 | 177 | 1.0 | 2.0 | 0.00 | 0.00 | 0.00 | 1 | 1008.1 |
| 20260505101556 | 71 | 177 | 0.0 | 1.0 | 0.00 | 0.00 | 0.00 | 1 | 1008.2 |
| 20260505101358 | 71 | 177 | 0.0 | 1.0 | 0.00 | 0.00 | 0.00 | 2 | 1008.3 |
| 20260505101255 | 71 | 177 | 0.0 | 1.0 | 0.00 | 0.00 | 0.00 | 2 | 1008.4 |
| 20260505101156 | 71 | 177 | 0.0 | 1.0 | 0.00 | 0.00 | 0.00 | 2 | 1008.4 |
| 20260505100857 | 71 | 177 | 0.0 | 2.0 | 0.00 | 0.00 | 0.00 | 1 | 1008.4 |
| 20260505100758 | 71 | 177 | 0.0 | 2.0 | 0.00 | 0.00 | 0.00 | 1 | 1008.4 |
| 20260505100557 | 71 | 177 | 0.0 | 2.0 | 0.00 | 0.00 | 0.00 | 1 | 1008.4 |
| 20260505100458 | 71 | 177 | 0.0 | 2.0 | 0.00 | 0.00 | 0.00 | 1 | 1008.4 |
| 20260505100358 | 71 | 177 | 0.0 | 2.0 | 0.00 | 0.00 | 0.00 | 1 | 1008.4 |
| 20260505100158 | 71 | 177 | 2.0 | 2.0 | 0.00 | 0.00 | 0.00 | 1 | 1008.4 |
| 20260505100056 | 71 | 177 | 0.0 | 1.0 | 0.00 | 0.00 | 0.00 | 2 | 1008.3 |
| 20260505095958 | 71 | 177 | 0.0 | 1.0 | 0.00 | 0.00 | 0.00 | 2 | 1008.4 |
| 20260505095855 | 71 | 177 | 0.0 | 1.0 | 0.00 | 0.00 | 0.00 | 2 | 1008.4 |
| 20260505095657 | 71 | 177 | 0.0 | 1.0 | 0.00 | 0.00 | 0.00 | 2 | 1008.3 |
| 20260505095558 | 71 | 177 | 0.0 | 2.0 | 0.00 | 0.00 | 0.00 | 2 | 1008.3 |
| 20260505095456 | 71 | 177 | 0.0 | 2.0 | 0.00 | 0.00 | 0.00 | 2 | 1008.2 |
| 20260505095357 | 71 | 177 | 0.0 | 2.0 | 0.00 | 0.00 | 0.00 | 2 | 1008.2 |
| 20260505095255 | 71 | 177 | 0.0 | 2.0 | 0.00 | 0.00 | 0.00 | 2 | 1008.2 |
| 20260505095057 | 71 | 177 | 0.0 | 2.0 | 0.00 | 0.00 | 0.00 | 2 | 1008.1 |
| 20260505094959 | 70 | 177 | 0.0 | 2.0 | 0.00 | 0.00 | 0.00 | 2 | 1008.0 |
| 20260505094855 | 70 | 177 | 0.0 | 2.0 | 0.00 | 0.00 | 0.00 | 2 | 1008.1 |
| 20260505094756 | 70 | 177 | 0.0 | 2.0 | 0.00 | 0.00 | 0.00 | 3 | 1008.0 |
| 20260505094658 | 70 | 177 | 0.0 | 2.0 | 0.00 | 0.00 | 0.00 | 2 | 1008.1 |
| 20260505094558 | 70 | 177 | 0.0 | 2.0 | 0.00 | 0.00 | 0.00 | 2 | 1008.1 |
| 20260505094457 | 70 | 177 | 1.0 | 2.0 | 0.00 | 0.00 | 0.00 | 3 | 1008.1 |
| 20260505094358 | 70 | 177 | 0.0 | 2.0 | 0.00 | 0.00 | 0.00 | 3 | 1008.2 |
| 20260505094258 | 70 | 177 | 1.0 | 1.0 | 0.00 | 0.00 | 0.00 | 3 | 1008.2 |
| 20260505094158 | 70 | 177 | 0.0 | 2.0 | 0.00 | 0.00 | 0.00 | 3 | 1008.3 |
| 20260505094057 | 70 | 177 | 0.0 | 2.0 | 0.00 | 0.00 | 0.00 | 3 | 1008.2 |
| 20260505093959 | 70 | 177 | 0.0 | 2.0 | 0.00 | 0.00 | 0.00 | 4 | 1008.2 |
| 20260505093858 | 70 | 177 | 0.0 | 2.0 | 0.00 | 0.00 | 0.00 | 4 | 1008.2 |
| 20260505093758 | 70 | 177 | 0.0 | 2.0 | 0.00 | 0.00 | 0.00 | 3 | 1008.2 |
| 20260505093657 | 70 | 177 | 0.0 | 2.0 | 0.00 | 0.00 | 0.00 | 4 | 1008.2 |
| 20260505093556 | 70 | 177 | 0.0 | 2.0 | 0.00 | 0.00 | 0.00 | 4 | 1008.1 |
| 20260505093457 | 70 | 177 | 0.0 | 2.0 | 0.00 | 0.00 | 0.00 | 4 | 1008.3 |
| 20260505093358 | 70 | 177 | 0.0 | 2.0 | 0.00 | 0.00 | 0.00 | 4 | 1008.2 |
| 20260505093258 | 70 | 177 | 1.0 | 2.0 | 0.00 | 0.00 | 0.00 | 4 | 1008.3 |
| 20260505093156 | 70 | 177 | 0.0 | 1.0 | 0.00 | 0.00 | 0.00 | 4 | 1008.2 |
| 20260505092958 | 70 | 177 | 0.0 | 1.0 | 0.00 | 0.00 | 0.00 | 4 | 1008.3 |
| 20260505092855 | 70 | 177 | 0.0 | 1.0 | 0.00 | 0.00 | 0.00 | 4 | 1008.3 |
| 20260505092758 | 70 | 177 | 0.0 | 1.0 | 0.00 | 0.00 | 0.00 | 4 | 1008.4 |
| 20260505092656 | 70 | 177 | 0.0 | 1.0 | 0.00 | 0.00 | 0.00 | 5 | 1008.4 |
| 20260505092558 | 70 | 177 | 0.0 | 1.0 | 0.00 | 0.00 | 0.00 | 6 | 1008.4 |
| 20260505092456 | 70 | 177 | 0.0 | 1.0 | 0.00 | 0.00 | 0.00 | 6 | 1008.4 |
| 20260505092357 | 70 | 177 | 0.0 | 1.0 | 0.00 | 0.00 | 0.00 | 6 | 1008.5 |
| 20260505092257 | 70 | 177 | 0.0 | 1.0 | 0.00 | 0.00 | 0.00 | 6 | 1008.5 |
| 20260505092158 | 70 | 177 | 0.0 | 1.0 | 0.00 | 0.00 | 0.00 | 6 | 1008.5 |
| 20260505092058 | 70 | 177 | 0.0 | 1.0 | 0.00 | 0.00 | 0.00 | 7 | 1008.5 |
| 20260505091958 | 70 | 177 | 0.0 | 1.0 | 0.00 | 0.00 | 0.00 | 7 | 1008.6 |
| 20260505091858 | 70 | 177 | 0.0 | 1.0 | 0.00 | 0.00 | 0.00 | 7 | 1008.6 |
| 20260505091657 | 70 | 177 | 0.0 | 1.0 | 0.00 | 0.00 | 0.00 | 8 | 1008.6 |
| 20260505091356 | 70 | 177 | 0.0 | 1.0 | 0.00 | 0.00 | 0.00 | 8 | 1008.6 |
| 20260505091256 | 70 | 177 | 0.0 | 1.0 | 0.00 | 0.00 | 0.00 | 7 | 1008.6 |
| 20260505091155 | 70 | 177 | 0.0 | 1.0 | 0.00 | 0.00 | 0.00 | 7 | 1008.6 |
| 20260505090957 | 70 | 177 | 0.0 | 1.0 | 0.00 | 0.00 | 0.00 | 7 | 1008.6 |
| 20260505090857 | 70 | 177 | 0.0 | 1.0 | 0.00 | 0.00 | 0.00 | 7 | 1008.5 |
| 20260505090756 | 70 | 177 | 0.0 | 1.0 | 0.00 | 0.00 | 0.00 | 7 | 1008.5 |
| 20260505090558 | 70 | 177 | 0.0 | 2.0 | 0.00 | 0.00 | 0.00 | 7 | 1008.5 |
| 20260505090358 | 70 | 177 | 0.0 | 2.0 | 0.00 | 0.00 | 0.00 | 7 | 1008.5 |
| 20260505090257 | 70 | 177 | 0.0 | 2.0 | 0.00 | 0.00 | 0.00 | 8 | 1008.6 |
| 20260505090158 | 70 | 177 | 0.0 | 2.0 | 0.00 | 0.00 | 0.00 | 8 | 1008.6 |
| 20260505090058 | 70 | 177 | 0.0 | 2.0 | 0.00 | 0.00 | 0.00 | 8 | 1008.5 |
| 20260505085857 | 70 | 177 | 0.0 | 2.0 | 0.00 | 0.00 | 0.00 | 8 | 1008.5 |
| 20260505085758 | 70 | 177 | 0.0 | 2.0 | 0.00 | 0.00 | 0.00 | 8 | 1008.5 |
| 20260505085657 | 70 | 177 | 2.0 | 2.0 | 0.00 | 0.00 | 0.00 | 8 | 1008.5 |
| 20260505085556 | 70 | 177 | 0.0 | 1.0 | 0.00 | 0.00 | 0.00 | 8 | 1008.5 |
| 20260505085458 | 70 | 177 | 0.0 | 1.0 | 0.00 | 0.00 | 0.00 | 8 | 1008.6 |
| 20260505085257 | 70 | 177 | 0.0 | 1.0 | 0.00 | 0.00 | 0.00 | 9 | 1008.6 |
| 20260505085157 | 70 | 177 | 0.0 | 1.0 | 0.00 | 0.00 | 0.00 | 9 | 1008.6 |
| 20260505085058 | 70 | 177 | 0.0 | 1.0 | 0.00 | 0.00 | 0.00 | 9 | 1008.6 |
| 20260505084959 | 70 | 177 | 0.0 | 1.0 | 0.00 | 0.00 | 0.00 | 10 | 1008.6 |
| 20260505084756 | 70 | 177 | 0.0 | 1.0 | 0.00 | 0.00 | 0.00 | 10 | 1008.5 |
| 20260505084556 | 70 | 177 | 0.0 | 1.0 | 0.00 | 0.00 | 0.00 | 10 | 1008.6 |
| 20260505084455 | 70 | 177 | 0.0 | 1.0 | 0.00 | 0.00 | 0.00 | 9 | 1008.6 |
| 20260505084357 | 70 | 177 | 0.0 | 1.0 | 0.00 | 0.00 | 0.00 | 9 | 1008.6 |
| 20260505084257 | 70 | 177 | 0.0 | 2.0 | 0.00 | 0.00 | 0.00 | 9 | 1008.5 |
| 20260505084158 | 70 | 177 | 0.0 | 2.0 | 0.00 | 0.00 | 0.00 | 9 | 1008.5 |
| 20260505084058 | 70 | 177 | 0.0 | 2.0 | 0.00 | 0.00 | 0.00 | 9 | 1008.5 |
| 20260505083959 | 70 | 177 | 0.0 | 2.0 | 0.00 | 0.00 | 0.00 | 9 | 1008.6 |
| 20260505083856 | 70 | 177 | 0.0 | 2.0 | 0.00 | 0.00 | 0.00 | 9 | 1008.6 |
| 20260505083758 | 70 | 177 | 0.0 | 2.0 | 0.00 | 0.00 | 0.00 | 9 | 1008.6 |
| 20260505083657 | 70 | 177 | 0.0 | 2.0 | 0.00 | 0.00 | 0.00 | 9 | 1008.6 |
| 20260505083557 | 70 | 177 | 0.0 | 2.0 | 0.00 | 0.00 | 0.00 | 9 | 1008.6 |
| 20260505083457 | 70 | 177 | 0.0 | 2.0 | 0.00 | 0.00 | 0.00 | 10 | 1008.6 |
| 20260505083357 | 70 | 177 | 0.0 | 2.0 | 0.00 | 0.00 | 0.00 | 10 | 1008.6 |
| 20260505083156 | 70 | 177 | 0.0 | 2.0 | 0.00 | 0.00 | 0.00 | 10 | 1008.5 |
| 20260505083057 | 70 | 177 | 0.0 | 2.0 | 0.00 | 0.00 | 0.00 | 10 | 1008.5 |
| 20260505083000 | 70 | 177 | 0.0 | 2.0 | 0.00 | 0.00 | 0.00 | 10 | 1008.5 |
| 20260505082858 | 70 | 177 | 0.0 | 2.0 | 0.00 | 0.00 | 0.00 | 10 | 1008.5 |
| 20260505082756 | 70 | 177 | 0.0 | 2.0 | 0.00 | 0.00 | 0.00 | 11 | 1008.5 |
| 20260505082556 | 70 | 177 | 0.0 | 3.0 | 0.00 | 0.00 | 0.00 | 11 | 1008.6 |
| 20260505082457 | 70 | 177 | 0.0 | 3.0 | 0.00 | 0.00 | 0.00 | 12 | 1008.5 |
| 20260505082358 | 70 | 177 | 0.0 | 3.0 | 0.00 | 0.00 | 0.00 | 12 | 1008.5 |
| 20260505082156 | 70 | 177 | 0.0 | 3.0 | 0.00 | 0.00 | 0.00 | 12 | 1008.6 |
| 20260505082055 | 70 | 177 | 0.0 | 3.0 | 0.00 | 0.00 | 0.00 | 12 | 1008.6 |
| 20260505081958 | 70 | 177 | 0.0 | 3.0 | 0.00 | 0.00 | 0.00 | 12 | 1008.6 |
| 20260505081857 | 70 | 177 | 0.0 | 3.0 | 0.00 | 0.00 | 0.00 | 13 | 1008.6 |
| 20260505081758 | 70 | 177 | 2.0 | 3.0 | 0.00 | 0.00 | 0.00 | 13 | 1008.6 |
| 20260505081458 | 70 | 177 | 0.0 | 2.0 | 0.00 | 0.00 | 0.00 | 14 | 1008.8 |
| 20260505081255 | 70 | 177 | 0.0 | 2.0 | 0.00 | 0.00 | 0.00 | 14 | 1008.8 |
| 20260505081158 | 70 | 177 | 0.0 | 3.0 | 0.00 | 0.00 | 0.00 | 15 | 1008.8 |
| 20260505081056 | 70 | 177 | 0.0 | 3.0 | 0.00 | 0.00 | 0.00 | 15 | 1008.8 |
| 20260505080858 | 70 | 177 | 0.0 | 3.0 | 0.00 | 0.00 | 0.00 | 15 | 1008.8 |
| 20260505080758 | 70 | 177 | 0.0 | 3.0 | 0.00 | 0.00 | 0.00 | 15 | 1008.8 |
| 20260505080658 | 70 | 177 | 0.0 | 3.0 | 0.00 | 0.00 | 0.00 | 15 | 1008.8 |
| 20260505080559 | 70 | 177 | 0.0 | 3.0 | 0.00 | 0.00 | 0.00 | 15 | 1008.8 |
| 20260505080456 | 70 | 177 | 0.0 | 3.0 | 0.00 | 0.00 | 0.00 | 15 | 1008.8 |
| 20260505080358 | 70 | 177 | 0.0 | 3.0 | 0.00 | 0.00 | 0.00 | 15 | 1008.9 |
| 20260505080257 | 70 | 171 | 0.0 | 2.0 | 0.00 | 0.00 | 0.00 | 15 | 1008.9 |
| 20260505080057 | 70 | 171 | 0.0 | 3.0 | 0.00 | 0.00 | 0.00 | 16 | 1008.8 |
| 20260505080002 | 70 | 171 | 1.0 | 3.0 | 0.00 | 0.00 | 0.00 | 16 | 1008.8 |
| 20260505075756 | 70 | 171 | 0.0 | 3.0 | 0.00 | 0.00 | 0.00 | 16 | 1008.9 |
| 20260505075656 | 70 | 171 | 1.0 | 3.0 | 0.00 | 0.00 | 0.00 | 16 | 1008.9 |
| 20260505075558 | 70 | 171 | 0.0 | 3.0 | 0.00 | 0.00 | 0.00 | 16 | 1008.9 |
| 20260505075458 | 70 | 171 | 0.0 | 3.0 | 0.00 | 0.00 | 0.00 | 16 | 1008.9 |
| 20260505075358 | 70 | 171 | 3.0 | 3.0 | 0.00 | 0.00 | 0.00 | 16 | 1008.9 |
| 20260505075256 | 70 | 170 | 1.0 | 2.0 | 0.00 | 0.00 | 0.00 | 16 | 1008.9 |
| 20260505075158 | 70 | 170 | 1.0 | 2.0 | 0.00 | 0.00 | 0.00 | 16 | 1008.9 |
| 20260505075056 | 70 | 170 | 0.0 | 3.0 | 0.00 | 0.00 | 0.00 | 16 | 1008.9 |
| 20260505074957 | 70 | 170 | 0.0 | 3.0 | 0.00 | 0.00 | 0.00 | 16 | 1008.9 |
| 20260505074857 | 70 | 170 | 0.0 | 3.0 | 0.00 | 0.00 | 0.00 | 16 | 1009.0 |
| 20260505074756 | 70 | 170 | 0.0 | 3.0 | 0.00 | 0.00 | 0.00 | 17 | 1008.9 |
| 20260505074557 | 70 | 170 | 0.0 | 3.0 | 0.00 | 0.00 | 0.00 | 17 | 1009.0 |
| 20260505074456 | 70 | 170 | 0.0 | 3.0 | 0.00 | 0.00 | 0.00 | 16 | 1009.0 |
| 20260505074358 | 70 | 170 | 0.0 | 3.0 | 0.00 | 0.00 | 0.00 | 16 | 1009.0 |
| 20260505074259 | 70 | 170 | 0.0 | 3.0 | 0.00 | 0.00 | 0.00 | 16 | 1009.0 |
| 20260505074158 | 70 | 170 | 2.0 | 3.0 | 0.00 | 0.00 | 0.00 | 17 | 1009.0 |
| 20260505074055 | 70 | 170 | 0.0 | 3.0 | 0.00 | 0.00 | 0.00 | 17 | 1009.0 |
| 20260505073958 | 70 | 170 | 0.0 | 3.0 | 0.00 | 0.00 | 0.00 | 17 | 1009.0 |
| 20260505073857 | 70 | 170 | 0.0 | 3.0 | 0.00 | 0.00 | 0.00 | 17 | 1009.0 |
| 20260505073758 | 70 | 170 | 0.0 | 3.0 | 0.00 | 0.00 | 0.00 | 17 | 1009.0 |
| 20260505073657 | 70 | 170 | 0.0 | 3.0 | 0.00 | 0.00 | 0.00 | 17 | 1009.0 |
| 20260505073356 | 70 | 170 | 0.0 | 3.0 | 0.00 | 0.00 | 0.00 | 18 | 1009.0 |
| 20260505073255 | 70 | 170 | 0.0 | 3.0 | 0.00 | 0.00 | 0.00 | 18 | 1009.0 |
| 20260505073156 | 70 | 170 | 0.0 | 3.0 | 0.00 | 0.00 | 0.00 | 18 | 1009.0 |
| 20260505073057 | 70 | 170 | 0.0 | 3.0 | 0.00 | 0.00 | 0.00 | 18 | 1009.0 |
| 20260505073000 | 70 | 170 | 0.0 | 3.0 | 0.00 | 0.00 | 0.00 | 18 | 1009.0 |
| 20260505072855 | 70 | 170 | 0.0 | 3.0 | 0.00 | 0.00 | 0.00 | 18 | 1008.9 |
| 20260505072756 | 70 | 170 | 0.0 | 3.0 | 0.00 | 0.00 | 0.00 | 19 | 1009.0 |
| 20260505072657 | 70 | 170 | 0.0 | 3.0 | 0.00 | 0.00 | 0.00 | 19 | 1008.9 |
| 20260505072558 | 70 | 170 | 0.0 | 3.0 | 0.00 | 0.00 | 0.00 | 19 | 1008.9 |
| 20260505072455 | 70 | 170 | 0.0 | 3.0 | 0.00 | 0.00 | 0.00 | 19 | 1008.9 |
| 20260505072258 | 70 | 170 | 0.0 | 2.0 | 0.00 | 0.00 | 0.00 | 19 | 1009.0 |
| 20260505072158 | 70 | 170 | 0.0 | 2.0 | 0.00 | 0.00 | 0.00 | 19 | 1009.0 |
| 20260505072055 | 69 | 170 | 0.0 | 2.0 | 0.00 | 0.00 | 0.00 | 19 | 1009.1 |
| 20260505071957 | 69 | 170 | 1.0 | 2.0 | 0.00 | 0.00 | 0.00 | 19 | 1009.1 |
| 20260505071857 | 69 | 170 | 0.0 | 2.0 | 0.00 | 0.00 | 0.00 | 19 | 1009.1 |
| 20260505071758 | 69 | 170 | 0.0 | 2.0 | 0.00 | 0.00 | 0.00 | 19 | 1009.1 |
| 20260505071656 | 69 | 170 | 0.0 | 2.0 | 0.00 | 0.00 | 0.00 | 20 | 1009.1 |
| 20260505071556 | 69 | 170 | 0.0 | 2.0 | 0.00 | 0.00 | 0.00 | 20 | 1009.1 |
| 20260505071458 | 69 | 170 | 1.0 | 2.0 | 0.00 | 0.00 | 0.00 | 20 | 1009.1 |
| 20260505071358 | 69 | 165 | 0.0 | 2.0 | 0.00 | 0.00 | 0.00 | 20 | 1009.1 |
| 20260505071257 | 69 | 164 | 0.0 | 2.0 | 0.00 | 0.00 | 0.00 | 20 | 1009.2 |
| 20260505071156 | 69 | 165 | 0.0 | 2.0 | 0.00 | 0.00 | 0.00 | 21 | 1009.2 |
| 20260505071058 | 69 | 165 | 0.0 | 2.0 | 0.00 | 0.00 | 0.00 | 21 | 1009.3 |
| 20260505070959 | 69 | 165 | 1.0 | 2.0 | 0.00 | 0.00 | 0.00 | 21 | 1009.3 |
| 20260505070756 | 69 | 164 | 0.0 | 2.0 | 0.00 | 0.00 | 0.00 | 22 | 1009.3 |
| 20260505070657 | 69 | 165 | 0.0 | 2.0 | 0.00 | 0.00 | 0.00 | 22 | 1009.3 |
| 20260505070457 | 69 | 165 | 0.0 | 2.0 | 0.00 | 0.00 | 0.00 | 22 | 1009.2 |
| 20260505070356 | 69 | 164 | 0.0 | 2.0 | 0.00 | 0.00 | 0.00 | 22 | 1009.3 |
| 20260505070255 | 69 | 165 | 0.0 | 2.0 | 0.00 | 0.00 | 0.00 | 23 | 1009.3 |
| 20260505070057 | 69 | 165 | 0.0 | 2.0 | 0.00 | 0.00 | 0.00 | 23 | 1009.3 |
| 20260505065858 | 69 | 165 | 0.0 | 2.0 | 0.00 | 0.00 | 0.00 | 24 | 1009.4 |
| 20260505065758 | 69 | 165 | 0.0 | 2.0 | 0.00 | 0.00 | 0.00 | 24 | 1009.4 |
| 20260505065655 | 69 | 164 | 0.0 | 2.0 | 0.00 | 0.00 | 0.00 | 24 | 1009.4 |
| 20260505065556 | 69 | 164 | 0.0 | 2.0 | 0.00 | 0.00 | 0.00 | 24 | 1009.4 |
| 20260505065458 | 69 | 164 | 0.0 | 2.0 | 0.00 | 0.00 | 0.00 | 24 | 1009.4 |
| 20260505065358 | 69 | 165 | 0.0 | 2.0 | 0.00 | 0.00 | 0.00 | 24 | 1009.3 |
| 20260505065257 | 69 | 164 | 0.0 | 2.0 | 0.00 | 0.00 | 0.00 | 25 | 1009.4 |
| 20260505065057 | 69 | 164 | 0.0 | 1.0 | 0.00 | 0.00 | 0.00 | 25 | 1009.4 |
| 20260505065001 | 69 | 164 | 0.0 | 1.0 | 0.00 | 0.00 | 0.00 | 25 | 1009.5 |
| 20260505064857 | 69 | 164 | 0.0 | 1.0 | 0.00 | 0.00 | 0.00 | 25 | 1009.5 |
| 20260505064756 | 69 | 164 | 0.0 | 1.0 | 0.00 | 0.00 | 0.00 | 26 | 1009.5 |
| 20260505064558 | 69 | 164 | 0.0 | 1.0 | 0.00 | 0.00 | 0.00 | 26 | 1009.5 |
| 20260505064356 | 69 | 164 | 0.0 | 1.0 | 0.00 | 0.00 | 0.00 | 27 | 1009.6 |
| 20260505064158 | 69 | 164 | 0.0 | 1.0 | 0.00 | 0.00 | 0.00 | 27 | 1009.6 |
| 20260505064058 | 69 | 164 | 0.0 | 1.0 | 0.00 | 0.00 | 0.00 | 27 | 1009.6 |
| 20260505063957 | 69 | 164 | 0.0 | 1.0 | 0.00 | 0.00 | 0.00 | 27 | 1009.7 |
| 20260505063855 | 69 | 164 | 0.0 | 1.0 | 0.00 | 0.00 | 0.00 | 28 | 1009.7 |
| 20260505063759 | 69 | 164 | 0.0 | 1.0 | 0.00 | 0.00 | 0.00 | 28 | 1009.7 |
| 20260505063556 | 69 | 164 | 1.0 | 1.0 | 0.00 | 0.00 | 0.00 | 28 | 1009.8 |
| 20260505063456 | 69 | 164 | 0.0 | 1.0 | 0.00 | 0.00 | 0.00 | 28 | 1009.8 |
| 20260505063358 | 69 | 164 | 0.0 | 1.0 | 0.00 | 0.00 | 0.00 | 28 | 1009.8 |
| 20260505063257 | 69 | 164 | 0.0 | 1.0 | 0.00 | 0.00 | 0.00 | 28 | 1009.8 |
| 20260505063158 | 69 | 164 | 0.0 | 1.0 | 0.00 | 0.00 | 0.00 | 29 | 1009.8 |
| 20260505063056 | 69 | 164 | 0.0 | 3.0 | 0.00 | 0.00 | 0.00 | 29 | 1009.8 |
| 20260505062858 | 69 | 164 | 0.0 | 3.0 | 0.00 | 0.00 | 0.00 | 30 | 1009.9 |
| 20260505062758 | 69 | 164 | 0.0 | 3.0 | 0.00 | 0.00 | 0.00 | 30 | 1009.9 |
| 20260505062656 | 69 | 164 | 0.0 | 3.0 | 0.00 | 0.00 | 0.00 | 30 | 1009.9 |
| 20260505062556 | 69 | 164 | 0.0 | 3.0 | 0.00 | 0.00 | 0.00 | 30 | 1009.9 |
| 20260505062458 | 69 | 164 | 0.0 | 3.0 | 0.00 | 0.00 | 0.00 | 30 | 1009.9 |
| 20260505062258 | 69 | 164 | 0.0 | 3.0 | 0.00 | 0.00 | 0.00 | 32 | 1009.9 |
| 20260505062158 | 69 | 164 | 0.0 | 1.0 | 0.00 | 0.00 | 0.00 | 32 | 1010.0 |
| 20260505062057 | 69 | 164 | 0.0 | 1.0 | 0.00 | 0.00 | 0.00 | 32 | 1010.0 |
| 20260505061957 | 69 | 164 | 0.0 | 1.0 | 0.00 | 0.00 | 0.00 | 32 | 1010.1 |
| 20260505061855 | 69 | 164 | 0.0 | 0.0 | 0.00 | 0.00 | 0.00 | 33 | 1010.1 |
| 20260505061756 | 69 | 164 | 0.0 | 0.0 | 0.00 | 0.00 | 0.00 | 34 | 1010.1 |
| 20260505061656 | 69 | 164 | 0.0 | 1.0 | 0.00 | 0.00 | 0.00 | 35 | 1010.2 |
| 20260505061558 | 69 | 164 | 0.0 | 1.0 | 0.00 | 0.00 | 0.00 | 35 | 1010.2 |
| 20260505061456 | 69 | 164 | 0.0 | 1.0 | 0.00 | 0.00 | 0.00 | 35 | 1010.1 |
| 20260505061357 | 69 | 164 | 0.0 | 1.0 | 0.00 | 0.00 | 0.00 | 34 | 1010.1 |
| 20260505061056 | 69 | 164 | 0.0 | 1.0 | 0.00 | 0.00 | 0.00 | 34 | 1010.1 |
| 20260505060957 | 69 | 164 | 0.0 | 1.0 | 0.00 | 0.00 | 0.00 | 35 | 1010.1 |
| 20260505060857 | 69 | 164 | 0.0 | 1.0 | 0.00 | 0.00 | 0.00 | 35 | 1010.1 |
| 20260505060758 | 69 | 164 | 0.0 | 1.0 | 0.00 | 0.00 | 0.00 | 35 | 1010.0 |
| 20260505060656 | 69 | 164 | 0.0 | 1.0 | 0.00 | 0.00 | 0.00 | 35 | 1010.0 |
| 20260505060556 | 69 | 164 | 0.0 | 1.0 | 0.00 | 0.00 | 0.00 | 36 | 1010.0 |
| 20260505060457 | 69 | 164 | 0.0 | 0.0 | 0.00 | 0.00 | 0.00 | 36 | 1009.9 |
| 20260505060358 | 69 | 164 | 0.0 | 0.0 | 0.00 | 0.00 | 0.00 | 37 | 1010.0 |
| 20260505060256 | 69 | 164 | 0.0 | 0.0 | 0.00 | 0.00 | 0.00 | 36 | 1010.0 |
| 20260505060156 | 69 | 164 | 0.0 | 0.0 | 0.00 | 0.00 | 0.00 | 36 | 1010.0 |
| 20260505060057 | 69 | 164 | 0.0 | 1.0 | 0.00 | 0.00 | 0.00 | 36 | 1010.0 |
| 20260505055859 | 69 | 164 | 0.0 | 1.0 | 0.00 | 0.00 | 0.00 | 36 | 1010.0 |
| 20260505055757 | 69 | 164 | 0.0 | 1.0 | 0.00 | 0.00 | 0.00 | 37 | 1009.9 |
| 20260505055657 | 69 | 164 | 0.0 | 1.0 | 0.00 | 0.00 | 0.00 | 37 | 1009.9 |
| 20260505055559 | 69 | 164 | 0.0 | 1.0 | 0.00 | 0.00 | 0.00 | 37 | 1009.9 |
| 20260505055500 | 69 | 164 | 0.0 | 1.0 | 0.00 | 0.00 | 0.00 | 37 | 1009.9 |
| 20260505055357 | 69 | 164 | 0.0 | 1.0 | 0.00 | 0.00 | 0.00 | 37 | 1009.9 |
| 20260505055256 | 69 | 164 | 0.0 | 1.0 | 0.00 | 0.00 | 0.00 | 37 | 1009.9 |
| 20260505055200 | 69 | 164 | 0.0 | 1.0 | 0.00 | 0.00 | 0.00 | 38 | 1009.9 |
| 20260505055100 | 70 | 164 | 0.0 | 1.0 | 0.00 | 0.00 | 0.00 | 38 | 1009.9 |
| 20260505054958 | 70 | 164 | 0.0 | 1.0 | 0.00 | 0.00 | 0.00 | 38 | 1009.9 |
| 20260505054857 | 70 | 164 | 0.0 | 1.0 | 0.00 | 0.00 | 0.00 | 38 | 1009.9 |
| 20260505054759 | 70 | 164 | 0.0 | 1.0 | 0.00 | 0.00 | 0.00 | 39 | 1009.9 |
| 20260505054659 | 70 | 164 | 0.0 | 1.0 | 0.00 | 0.00 | 0.00 | 39 | 1009.9 |
| 20260505054557 | 70 | 164 | 0.0 | 1.0 | 0.00 | 0.00 | 0.00 | 39 | 1010.0 |
| 20260505054400 | 70 | 164 | 0.0 | 1.0 | 0.00 | 0.00 | 0.00 | 39 | 1010.0 |
| 20260505054300 | 70 | 164 | 0.0 | 1.0 | 0.00 | 0.00 | 0.00 | 40 | 1010.1 |
| 20260505054157 | 70 | 164 | 0.0 | 1.0 | 0.00 | 0.00 | 0.00 | 40 | 1010.1 |
| 20260505054056 | 70 | 164 | 0.0 | 0.0 | 0.00 | 0.00 | 0.00 | 41 | 1010.1 |
| 20260505053959 | 70 | 164 | 0.0 | 0.0 | 0.00 | 0.00 | 0.00 | 41 | 1010.2 |
| 20260505053859 | 70 | 164 | 0.0 | 0.0 | 0.00 | 0.00 | 0.00 | 41 | 1010.2 |
| 20260505053800 | 70 | 164 | 0.0 | 0.0 | 0.00 | 0.00 | 0.00 | 41 | 1010.2 |
| 20260505053656 | 70 | 164 | 0.0 | 0.0 | 0.00 | 0.00 | 0.00 | 41 | 1010.3 |
| 20260505053557 | 70 | 164 | 0.0 | 0.0 | 0.00 | 0.00 | 0.00 | 41 | 1010.3 |
| 20260505053459 | 70 | 164 | 0.0 | 0.0 | 0.00 | 0.00 | 0.00 | 42 | 1010.3 |
| 20260505053400 | 70 | 164 | 0.0 | 0.0 | 0.00 | 0.00 | 0.00 | 43 | 1010.3 |
| 20260505053256 | 70 | 164 | 0.0 | 0.0 | 0.00 | 0.00 | 0.00 | 42 | 1010.3 |
| 20260505053059 | 70 | 164 | 0.0 | 0.0 | 0.00 | 0.00 | 0.00 | 43 | 1010.3 |
| 20260505052856 | 70 | 164 | 0.0 | 2.0 | 0.00 | 0.00 | 0.00 | 43 | 1010.4 |
| 20260505052757 | 70 | 164 | 0.0 | 2.0 | 0.00 | 0.00 | 0.00 | 43 | 1010.4 |
| 20260505052700 | 70 | 164 | 0.0 | 2.0 | 0.00 | 0.00 | 0.00 | 43 | 1010.4 |
| 20260505052600 | 70 | 164 | 0.0 | 2.0 | 0.00 | 0.00 | 0.00 | 43 | 1010.4 |
| 20260505052459 | 70 | 164 | 0.0 | 2.0 | 0.00 | 0.00 | 0.00 | 43 | 1010.3 |
| 20260505052357 | 70 | 164 | 0.0 | 2.0 | 0.00 | 0.00 | 0.00 | 43 | 1010.3 |
| 20260505052300 | 70 | 164 | 0.0 | 2.0 | 0.00 | 0.00 | 0.00 | 43 | 1010.3 |
| 20260505052200 | 70 | 164 | 0.0 | 2.0 | 0.00 | 0.00 | 0.00 | 43 | 1010.3 |
| 20260505052056 | 70 | 164 | 1.0 | 1.0 | 0.00 | 0.00 | 0.00 | 43 | 1010.3 |
| 20260505051656 | 70 | 164 | 0.0 | 1.0 | 0.00 | 0.00 | 0.00 | 45 | 1010.3 |
| 20260505051558 | 70 | 164 | 0.0 | 1.0 | 0.00 | 0.00 | 0.00 | 45 | 1010.3 |
| 20260505051359 | 70 | 164 | 0.0 | 2.0 | 0.00 | 0.00 | 0.00 | 45 | 1010.3 |
| 20260505051256 | 70 | 164 | 0.0 | 2.0 | 0.00 | 0.00 | 0.00 | 45 | 1010.3 |
| 20260505051157 | 70 | 164 | 0.0 | 2.0 | 0.00 | 0.00 | 0.00 | 45 | 1010.3 |
| 20260505051057 | 70 | 164 | 0.0 | 2.0 | 0.00 | 0.00 | 0.00 | 46 | 1010.3 |
| 20260505051000 | 70 | 164 | 0.0 | 2.0 | 0.00 | 0.00 | 0.00 | 45 | 1010.3 |
| 20260505050757 | 70 | 164 | 0.0 | 2.0 | 0.00 | 0.00 | 0.00 | 46 | 1010.3 |
| 20260505050659 | 70 | 164 | 0.0 | 2.0 | 0.00 | 0.00 | 0.00 | 46 | 1010.3 |
| 20260505050600 | 70 | 164 | 0.0 | 2.0 | 0.00 | 0.00 | 0.00 | 46 | 1010.4 |
| 20260505050457 | 70 | 164 | 0.0 | 1.0 | 0.00 | 0.00 | 0.00 | 47 | 1010.3 |
| 20260505050357 | 70 | 164 | 0.0 | 1.0 | 0.00 | 0.00 | 0.00 | 46 | 1010.3 |
| 20260505050300 | 70 | 164 | 0.0 | 1.0 | 0.00 | 0.00 | 0.00 | 46 | 1010.3 |
| 20260505050200 | 70 | 164 | 0.0 | 1.0 | 0.00 | 0.00 | 0.00 | 47 | 1010.3 |
| 20260505041559 | 71 | 196 | 0.0 | 2.0 | 0.00 | 0.00 | 0.00 | 54 | 1010.6 |
| 20260505041458 | 71 | 196 | 0.0 | 2.0 | 0.00 | 0.00 | 0.00 | 55 | 1010.6 |
| 20260505041358 | 71 | 196 | 0.0 | 2.0 | 0.00 | 0.00 | 0.00 | 55 | 1010.7 |
| 20260505041158 | 71 | 196 | 0.0 | 2.0 | 0.00 | 0.00 | 0.00 | 55 | 1010.6 |
| 20260505041058 | 71 | 196 | 0.0 | 2.0 | 0.00 | 0.00 | 0.00 | 55 | 1010.7 |
| 20260505040959 | 71 | 196 | 0.0 | 3.0 | 0.00 | 0.00 | 0.00 | 55 | 1010.6 |
| 20260505040858 | 71 | 196 | 1.0 | 3.0 | 0.00 | 0.00 | 0.00 | 55 | 1010.6 |
| 20260505040757 | 71 | 196 | 0.0 | 3.0 | 0.00 | 0.00 | 0.00 | 55 | 1010.6 |
| 20260505040558 | 71 | 196 | 0.0 | 3.0 | 0.00 | 0.00 | 0.00 | 55 | 1010.6 |
| 20260505040458 | 71 | 196 | 0.0 | 3.0 | 0.00 | 0.00 | 0.00 | 55 | 1010.6 |
| 20260505040359 | 71 | 196 | 0.0 | 3.0 | 0.00 | 0.00 | 0.00 | 55 | 1010.6 |
| 20260505040258 | 71 | 196 | 1.0 | 3.0 | 0.00 | 0.00 | 0.00 | 56 | 1010.5 |
| 20260505040200 | 71 | 196 | 0.0 | 3.0 | 0.00 | 0.00 | 0.00 | 56 | 1010.6 |
| 20260505040057 | 71 | 196 | 0.0 | 2.0 | 0.00 | 0.00 | 0.00 | 56 | 1010.5 |
| 20260505040002 | 72 | 196 | 1.0 | 2.0 | 0.00 | 0.00 | 0.00 | 56 | 1010.5 |
| 20260505035858 | 72 | 196 | 0.0 | 2.0 | 0.00 | 0.00 | 0.00 | 56 | 1010.5 |
| 20260505035759 | 72 | 196 | 0.0 | 2.0 | 0.00 | 0.00 | 0.00 | 56 | 1010.6 |
| 20260505035658 | 72 | 196 | 0.0 | 2.0 | 0.00 | 0.00 | 0.00 | 56 | 1010.5 |
| 20260505035558 | 72 | 196 | 0.0 | 2.0 | 0.00 | 0.00 | 0.00 | 57 | 1010.6 |
| 20260505035459 | 72 | 196 | 1.0 | 2.0 | 0.00 | 0.00 | 0.00 | 57 | 1010.6 |
| 20260505035359 | 72 | 196 | 0.0 | 2.0 | 0.00 | 0.00 | 0.00 | 57 | 1010.6 |
| 20260505035258 | 72 | 196 | 0.0 | 2.0 | 0.00 | 0.00 | 0.00 | 57 | 1010.7 |
| 20260505035158 | 72 | 196 | 2.0 | 2.0 | 0.00 | 0.00 | 0.00 | 57 | 1010.8 |
| 20260505035058 | 72 | 196 | 0.0 | 2.0 | 0.00 | 0.00 | 0.00 | 57 | 1010.8 |
| 20260505035000 | 72 | 196 | 1.0 | 2.0 | 0.00 | 0.00 | 0.00 | 57 | 1010.8 |
| 20260505034857 | 72 | 196 | 0.0 | 2.0 | 0.00 | 0.00 | 0.00 | 58 | 1010.7 |
| 20260505034759 | 72 | 196 | 0.0 | 2.0 | 0.00 | 0.00 | 0.00 | 58 | 1010.8 |
| 20260505034658 | 72 | 196 | 0.0 | 2.0 | 0.00 | 0.00 | 0.00 | 58 | 1010.8 |
| 20260505034558 | 72 | 196 | 0.0 | 2.0 | 0.00 | 0.00 | 0.00 | 58 | 1010.8 |
| 20260505034456 | 72 | 196 | 0.0 | 2.0 | 0.00 | 0.00 | 0.00 | 58 | 1010.8 |
| 20260505034358 | 72 | 196 | 1.0 | 2.0 | 0.00 | 0.00 | 0.00 | 58 | 1010.7 |
| 20260505034257 | 72 | 196 | 0.0 | 2.0 | 0.00 | 0.00 | 0.00 | 58 | 1010.8 |
| 20260505034158 | 72 | 196 | 0.0 | 2.0 | 0.00 | 0.00 | 0.00 | 58 | 1010.8 |
| 20260505034057 | 72 | 196 | 0.0 | 2.0 | 0.00 | 0.00 | 0.00 | 58 | 1010.8 |
| 20260505033959 | 72 | 197 | 0.0 | 2.0 | 0.00 | 0.00 | 0.00 | 58 | 1010.9 |
| 20260505033657 | 72 | 197 | 0.0 | 3.0 | 0.00 | 0.00 | 0.00 | 59 | 1010.9 |
| 20260505033558 | 72 | 196 | 0.0 | 3.0 | 0.00 | 0.00 | 0.00 | 59 | 1010.9 |
| 20260505033458 | 72 | 196 | 0.0 | 4.0 | 0.00 | 0.00 | 0.00 | 59 | 1010.9 |
| 20260505033358 | 72 | 196 | 0.0 | 4.0 | 0.00 | 0.00 | 0.00 | 59 | 1010.9 |
| 20260505033256 | 72 | 196 | 1.0 | 4.0 | 0.00 | 0.00 | 0.00 | 59 | 1010.9 |
| 20260505033158 | 72 | 196 | 0.0 | 4.0 | 0.00 | 0.00 | 0.00 | 59 | 1011.0 |
| 20260505032957 | 72 | 196 | 0.0 | 4.0 | 0.00 | 0.00 | 0.00 | 59 | 1010.9 |
| 20260505032857 | 72 | 198 | 0.0 | 4.0 | 0.00 | 0.00 | 0.00 | 59 | 1010.9 |
| 20260505032657 | 72 | 198 | 1.0 | 4.0 | 0.00 | 0.00 | 0.00 | 60 | 1010.9 |
| 20260505032558 | 72 | 210 | 1.0 | 4.0 | 0.00 | 0.00 | 0.00 | 60 | 1010.9 |
| 20260505032456 | 72 | 210 | 1.0 | 4.0 | 0.00 | 0.00 | 0.00 | 60 | 1010.8 |
| 20260505032358 | 72 | 206 | 0.0 | 3.0 | 0.00 | 0.00 | 0.00 | 60 | 1010.7 |
| 20260505032255 | 72 | 206 | 1.0 | 3.0 | 0.00 | 0.00 | 0.00 | 60 | 1010.7 |
| 20260505032056 | 73 | 206 | 0.0 | 3.0 | 0.00 | 0.00 | 0.00 | 60 | 1010.7 |
| 20260505031959 | 73 | 206 | 0.0 | 3.0 | 0.00 | 0.00 | 0.00 | 60 | 1010.8 |
| 20260505031857 | 73 | 206 | 1.0 | 3.0 | 0.00 | 0.00 | 0.00 | 61 | 1010.7 |
| 20260505031757 | 73 | 206 | 0.0 | 2.0 | 0.00 | 0.00 | 0.00 | 61 | 1010.7 |
| 20260505031556 | 73 | 206 | 0.0 | 2.0 | 0.00 | 0.00 | 0.00 | 61 | 1010.8 |
| 20260505031358 | 73 | 206 | 1.0 | 2.0 | 0.00 | 0.00 | 0.00 | 61 | 1010.9 |
| 20260505031257 | 73 | 206 | 0.0 | 2.0 | 0.00 | 0.00 | 0.00 | 61 | 1010.9 |
| 20260505031058 | 73 | 207 | 1.0 | 3.0 | 0.00 | 0.00 | 0.00 | 61 | 1010.9 |
| 20260505031000 | 73 | 207 | 0.0 | 3.0 | 0.00 | 0.00 | 0.00 | 61 | 1010.9 |
| 20260505030758 | 73 | 207 | 0.0 | 3.0 | 0.00 | 0.00 | 0.00 | 62 | 1010.9 |
| 20260505030556 | 73 | 207 | 0.0 | 4.0 | 0.00 | 0.00 | 0.00 | 62 | 1010.9 |
| 20260505030458 | 73 | 207 | 0.0 | 4.0 | 0.00 | 0.00 | 0.00 | 62 | 1010.9 |
| 20260505030356 | 73 | 207 | 0.0 | 4.0 | 0.00 | 0.00 | 0.00 | 62 | 1010.9 |
| 20260505030255 | 73 | 207 | 2.0 | 4.0 | 0.00 | 0.00 | 0.00 | 62 | 1010.8 |
| 20260505030156 | 73 | 206 | 2.0 | 4.0 | 0.00 | 0.00 | 0.00 | 62 | 1010.8 |
| 20260505030057 | 73 | 207 | 0.0 | 4.0 | 0.00 | 0.00 | 0.00 | 62 | 1010.9 |
| 20260505030002 | 73 | 207 | 0.0 | 4.0 | 0.00 | 0.00 | 0.00 | 62 | 1010.9 |
| 20260505025858 | 73 | 207 | 2.0 | 4.0 | 0.00 | 0.00 | 0.00 | 62 | 1010.9 |
| 20260505025757 | 73 | 209 | 3.0 | 4.0 | 0.00 | 0.00 | 0.00 | 62 | 1010.9 |
| 20260505025658 | 73 | 192 | 2.0 | 4.0 | 0.00 | 0.00 | 0.00 | 62 | 1010.9 |
| 20260505025557 | 73 | 192 | 1.0 | 4.0 | 0.00 | 0.00 | 0.00 | 62 | 1010.9 |
| 20260505025458 | 73 | 203 | 0.0 | 4.0 | 0.00 | 0.00 | 0.00 | 62 | 1010.9 |
| 20260505025357 | 73 | 203 | 0.0 | 4.0 | 0.00 | 0.00 | 0.00 | 62 | 1010.9 |
| 20260505025258 | 73 | 203 | 2.0 | 4.0 | 0.00 | 0.00 | 0.00 | 62 | 1010.8 |
| 20260505025159 | 73 | 202 | 0.0 | 4.0 | 0.00 | 0.00 | 0.00 | 62 | 1010.9 |
| 20260505025000 | 73 | 202 | 0.0 | 4.0 | 0.00 | 0.00 | 0.00 | 62 | 1010.9 |
| 20260505024758 | 73 | 210 | 0.0 | 4.0 | 0.00 | 0.00 | 0.00 | 62 | 1010.9 |
| 20260505024659 | 73 | 210 | 0.0 | 4.0 | 0.00 | 0.00 | 0.00 | 62 | 1010.9 |
| 20260505024559 | 73 | 208 | 3.0 | 4.0 | 0.00 | 0.00 | 0.00 | 62 | 1010.8 |
| 20260505024456 | 73 | 175 | 0.0 | 4.0 | 0.00 | 0.00 | 0.00 | 62 | 1010.8 |
| 20260505024258 | 73 | 175 | 0.0 | 4.0 | 0.00 | 0.00 | 0.00 | 62 | 1010.7 |
| 20260505024158 | 73 | 204 | 0.0 | 4.0 | 0.00 | 0.00 | 0.00 | 62 | 1010.8 |
| 20260505023858 | 73 | 204 | 0.0 | 4.0 | 0.00 | 0.00 | 0.00 | 62 | 1010.7 |
| 20260505023759 | 73 | 204 | 1.0 | 4.0 | 0.00 | 0.00 | 0.00 | 62 | 1010.7 |
| 20260505023657 | 73 | 204 | 0.0 | 4.0 | 0.00 | 0.00 | 0.00 | 62 | 1010.8 |
| 20260505023557 | 73 | 204 | 0.0 | 4.0 | 0.00 | 0.00 | 0.00 | 62 | 1010.7 |
| 20260505023458 | 73 | 204 | 0.0 | 4.0 | 0.00 | 0.00 | 0.00 | 62 | 1010.7 |
| 20260505023256 | 73 | 171 | 0.0 | 4.0 | 0.00 | 0.00 | 0.00 | 62 | 1010.7 |
| 20260505023157 | 73 | 171 | 1.0 | 4.0 | 0.00 | 0.00 | 0.00 | 62 | 1010.7 |
| 20260505023058 | 73 | 171 | 0.0 | 4.0 | 0.00 | 0.00 | 0.00 | 62 | 1010.7 |
| 20260505023000 | 73 | 171 | 0.0 | 4.0 | 0.00 | 0.00 | 0.00 | 62 | 1010.6 |
| 20260505022856 | 73 | 171 | 0.0 | 4.0 | 0.00 | 0.00 | 0.00 | 62 | 1010.6 |
| 20260505022658 | 73 | 171 | 1.0 | 5.0 | 0.00 | 0.00 | 0.00 | 63 | 1010.6 |
| 20260505022559 | 73 | 171 | 1.0 | 5.0 | 0.00 | 0.00 | 0.00 | 62 | 1010.6 |
| 20260505022456 | 73 | 175 | 2.0 | 5.0 | 0.00 | 0.00 | 0.00 | 62 | 1010.5 |
| 20260505022359 | 73 | 178 | 0.0 | 5.0 | 0.00 | 0.00 | 0.00 | 63 | 1010.6 |
| 20260505022159 | 73 | 176 | 1.0 | 5.0 | 0.00 | 0.00 | 0.00 | 62 | 1010.6 |
| 20260505021858 | 73 | 176 | 2.0 | 5.0 | 0.00 | 0.00 | 0.00 | 62 | 1010.6 |
| 20260505021759 | 73 | 181 | 4.0 | 4.0 | 0.00 | 0.00 | 0.00 | 63 | 1010.6 |
| 20260505021656 | 73 | 216 | 1.0 | 4.0 | 0.00 | 0.00 | 0.00 | 62 | 1010.6 |
| 20260505021557 | 73 | 216 | 2.0 | 4.0 | 0.00 | 0.00 | 0.00 | 63 | 1010.7 |
| 20260505021458 | 73 | 245 | 0.0 | 4.0 | 0.00 | 0.00 | 0.00 | 63 | 1010.6 |
| 20260505021256 | 73 | 245 | 0.0 | 4.0 | 0.00 | 0.00 | 0.00 | 63 | 1010.6 |
| 20260505021157 | 73 | 245 | 2.0 | 4.0 | 0.00 | 0.00 | 0.00 | 63 | 1010.6 |
| 20260505021002 | 73 | 258 | 0.0 | 4.0 | 0.00 | 0.00 | 0.00 | 63 | 1010.5 |
| 20260505020858 | 73 | 258 | 1.0 | 4.0 | 0.00 | 0.00 | 0.00 | 63 | 1010.5 |
| 20260505020757 | 73 | 163 | 3.0 | 4.0 | 0.00 | 0.00 | 0.00 | 63 | 1010.5 |
| 20260505020658 | 73 | 221 | 0.0 | 4.0 | 0.00 | 0.00 | 0.00 | 63 | 1010.5 |
| 20260505020457 | 73 | 189 | 2.0 | 2.0 | 0.00 | 0.00 | 0.00 | 63 | 1010.6 |
| 20260505020359 | 73 | 189 | 2.0 | 2.0 | 0.00 | 0.00 | 0.00 | 63 | 1010.6 |
| 20260505020258 | 73 | 189 | 0.0 | 2.0 | 0.00 | 0.00 | 0.00 | 63 | 1010.6 |
| 20260505015856 | 73 | 189 | 0.0 | 2.0 | 0.00 | 0.00 | 0.00 | 63 | 1010.6 |
| 20260505015759 | 73 | 189 | 1.0 | 2.0 | 0.00 | 0.00 | 0.00 | 63 | 1010.6 |
| 20260505015457 | 74 | 189 | 1.0 | 3.0 | 0.00 | 0.00 | 0.00 | 64 | 1010.5 |
| 20260505015358 | 74 | 189 | 0.0 | 3.0 | 0.00 | 0.00 | 0.00 | 64 | 1010.5 |
| 20260505015259 | 74 | 189 | 0.0 | 3.0 | 0.00 | 0.00 | 0.00 | 64 | 1010.5 |
| 20260505015157 | 74 | 189 | 0.0 | 3.0 | 0.00 | 0.00 | 0.00 | 64 | 1010.5 |
| 20260505015056 | 74 | 189 | 0.0 | 4.0 | 0.00 | 0.00 | 0.00 | 64 | 1010.5 |
| 20260505015007 | 74 | 189 | 0.0 | 4.0 | 0.00 | 0.00 | 0.00 | 64 | 1010.5 |
| 20260505014858 | 74 | 189 | 0.0 | 4.0 | 0.00 | 0.00 | 0.00 | 64 | 1010.4 |
| 20260505014658 | 74 | 189 | 1.0 | 4.0 | 0.00 | 0.00 | 0.00 | 64 | 1010.4 |
| 20260505014559 | 74 | 189 | 1.0 | 4.0 | 0.00 | 0.00 | 0.00 | 64 | 1010.4 |
| 20260505014256 | 74 | 189 | 0.0 | 4.0 | 0.00 | 0.00 | 0.00 | 64 | 1010.4 |
| 20260505014158 | 74 | 195 | 0.0 | 4.0 | 0.00 | 0.00 | 0.00 | 64 | 1010.4 |
| 20260505014056 | 74 | 195 | 0.0 | 4.0 | 0.00 | 0.00 | 0.00 | 64 | 1010.4 |
| 20260505013959 | 74 | 195 | 0.0 | 4.0 | 0.00 | 0.00 | 0.00 | 65 | 1010.3 |
| 20260505013856 | 74 | 195 | 0.0 | 4.0 | 0.00 | 0.00 | 0.00 | 65 | 1010.3 |
| 20260505013759 | 74 | 195 | 1.0 | 4.0 | 0.00 | 0.00 | 0.00 | 65 | 1010.3 |
| 20260505013457 | 74 | 186 | 0.0 | 4.0 | 0.00 | 0.00 | 0.00 | 65 | 1010.3 |
| 20260505013357 | 74 | 186 | 0.0 | 4.0 | 0.00 | 0.00 | 0.00 | 65 | 1010.3 |
| 20260505013258 | 74 | 176 | 0.0 | 4.0 | 0.00 | 0.00 | 0.00 | 65 | 1010.3 |
| 20260505013158 | 74 | 179 | 0.0 | 3.0 | 0.00 | 0.00 | 0.00 | 65 | 1010.4 |
| 20260505013056 | 74 | 179 | 1.0 | 4.0 | 0.00 | 0.00 | 0.00 | 65 | 1010.4 |
| 20260505013000 | 74 | 179 | 2.0 | 5.0 | 0.00 | 0.00 | 0.00 | 65 | 1010.4 |
| 20260505012757 | 74 | 179 | 0.0 | 5.0 | 0.00 | 0.00 | 0.00 | 65 | 1010.4 |
| 20260505012458 | 74 | 179 | 1.0 | 5.0 | 0.00 | 0.00 | 0.00 | 66 | 1010.3 |
| 20260505012357 | 74 | 178 | 1.0 | 5.0 | 0.00 | 0.00 | 0.00 | 66 | 1010.2 |
| 20260505012256 | 74 | 240 | 1.0 | 5.0 | 0.00 | 0.00 | 0.00 | 66 | 1010.2 |
| 20260505012158 | 74 | 164 | 2.0 | 5.0 | 0.00 | 0.00 | 0.00 | 66 | 1010.2 |
| 20260505012058 | 74 | 218 | 3.0 | 4.0 | 0.00 | 0.00 | 0.00 | 66 | 1010.2 |
| 20260505012001 | 74 | 208 | 1.0 | 3.0 | 0.00 | 0.00 | 0.00 | 66 | 1010.2 |
| 20260505011856 | 74 | 208 | 1.0 | 3.0 | 0.00 | 0.00 | 0.00 | 66 | 1010.2 |
| 20260505011757 | 74 | 208 | 2.0 | 3.0 | 0.00 | 0.00 | 0.00 | 66 | 1010.2 |
| 20260505011658 | 74 | 208 | 2.0 | 3.0 | 0.00 | 0.00 | 0.00 | 66 | 1010.3 |
| 20260505011556 | 74 | 208 | 1.0 | 3.0 | 0.00 | 0.00 | 0.00 | 66 | 1010.4 |
| 20260505011500 | 74 | 208 | 3.0 | 3.0 | 0.00 | 0.00 | 0.00 | 66 | 1010.4 |
| 20260505011357 | 74 | 208 | 1.0 | 4.0 | 0.00 | 0.00 | 0.00 | 66 | 1010.5 |
| 20260505011259 | 75 | 208 | 2.0 | 5.0 | 0.00 | 0.00 | 0.00 | 66 | 1010.4 |
| 20260505011056 | 75 | 208 | 1.0 | 5.0 | 0.00 | 0.00 | 0.00 | 66 | 1010.4 |
| 20260505011007 | 75 | 208 | 0.0 | 5.0 | 0.00 | 0.00 | 0.00 | 67 | 1010.4 |
| 20260505010857 | 75 | 208 | 1.0 | 5.0 | 0.00 | 0.00 | 0.00 | 67 | 1010.3 |
| 20260505010759 | 75 | 208 | 1.0 | 5.0 | 0.00 | 0.00 | 0.00 | 67 | 1010.3 |
| 20260505010657 | 75 | 208 | 1.0 | 5.0 | 0.00 | 0.00 | 0.00 | 67 | 1010.3 |
| 20260505010557 | 75 | 208 | 0.0 | 5.0 | 0.00 | 0.00 | 0.00 | 67 | 1010.3 |
| 20260505010356 | 75 | 210 | 1.0 | 4.0 | 0.00 | 0.00 | 0.00 | 67 | 1010.1 |
| 20260505010256 | 75 | 179 | 1.0 | 4.0 | 0.00 | 0.00 | 0.00 | 67 | 1010.2 |
| 20260505010157 | 75 | 179 | 0.0 | 7.0 | 0.00 | 0.00 | 0.00 | 67 | 1010.1 |
| 20260505010058 | 75 | 179 | 0.0 | 7.0 | 0.00 | 0.00 | 0.00 | 67 | 1010.1 |
| 20260505005856 | 75 | 180 | 1.0 | 7.0 | 0.00 | 0.00 | 0.00 | 67 | 1010.1 |
| 20260505005758 | 75 | 180 | 3.0 | 7.0 | 0.00 | 0.00 | 0.00 | 67 | 1010.1 |
| 20260505005559 | 75 | 180 | 0.0 | 7.0 | 0.00 | 0.00 | 0.00 | 67 | 1010.1 |
| 20260505005457 | 75 | 179 | 3.0 | 7.0 | 0.00 | 0.00 | 0.00 | 67 | 1010.1 |
| 20260505005357 | 75 | 167 | 7.0 | 7.0 | 0.00 | 0.00 | 0.00 | 67 | 1010.1 |
| 20260505005258 | 75 | 189 | 1.0 | 6.0 | 0.00 | 0.00 | 0.00 | 67 | 1010.1 |
| 20260505005159 | 75 | 189 | 1.0 | 6.0 | 0.00 | 0.00 | 0.00 | 67 | 1010.2 |
| 20260505005058 | 75 | 189 | 0.0 | 6.0 | 0.00 | 0.00 | 0.00 | 67 | 1010.2 |
| 20260505004959 | 75 | 189 | 0.0 | 7.0 | 0.00 | 0.00 | 0.00 | 67 | 1010.1 |
| 20260505004858 | 75 | 189 | 3.0 | 7.0 | 0.00 | 0.00 | 0.00 | 67 | 1010.1 |
| 20260505004656 | 76 | 189 | 0.0 | 7.0 | 0.00 | 0.00 | 0.00 | 67 | 1010.1 |
| 20260505004457 | 76 | 175 | 5.0 | 7.0 | 0.00 | 0.00 | 0.00 | 67 | 1010.1 |
| 20260505004359 | 76 | 201 | 3.0 | 7.0 | 0.00 | 0.00 | 0.00 | 67 | 1010.0 |
| 20260505004058 | 76 | 170 | 3.0 | 6.0 | 0.00 | 0.00 | 0.00 | 67 | 1010.0 |
| 20260505004007 | 76 | 178 | 2.0 | 6.0 | 0.00 | 0.00 | 0.00 | 67 | 1010.0 |
| 20260505003757 | 76 | 217 | 1.0 | 6.0 | 0.00 | 0.00 | 0.00 | 67 | 1010.1 |
| 20260505003656 | 76 | 165 | 2.0 | 6.0 | 0.00 | 0.00 | 0.00 | 67 | 1010.0 |
| 20260505003556 | 76 | 164 | 3.0 | 6.0 | 0.00 | 0.00 | 0.00 | 67 | 1010.0 |
| 20260505003459 | 76 | 176 | 0.0 | 6.0 | 0.00 | 0.00 | 0.00 | 67 | 1010.0 |
| 20260505003357 | 76 | 174 | 2.0 | 6.0 | 0.00 | 0.00 | 0.00 | 67 | 1010.0 |
| 20260505003258 | 76 | 240 | 0.0 | 6.0 | 0.00 | 0.00 | 0.00 | 67 | 1010.0 |
| 20260505003159 | 77 | 194 | 1.0 | 4.0 | 0.00 | 0.00 | 0.00 | 67 | 1010.0 |
| 20260505003058 | 77 | 197 | 1.0 | 4.0 | 0.00 | 0.00 | 0.00 | 67 | 1010.0 |
| 20260505002959 | 77 | 197 | 0.0 | 4.0 | 0.00 | 0.00 | 0.00 | 66 | 1010.0 |
| 20260505002856 | 77 | 197 | 0.0 | 4.0 | 0.00 | 0.00 | 0.00 | 66 | 1010.0 |
| 20260505002759 | 77 | 198 | 4.0 | 4.0 | 0.00 | 0.00 | 0.00 | 66 | 1010.0 |
| 20260505002656 | 77 | 142 | 2.0 | 4.0 | 0.00 | 0.00 | 0.00 | 66 | 1010.0 |
| 20260505002557 | 77 | 142 | 2.0 | 3.0 | 0.00 | 0.00 | 0.00 | 66 | 1009.9 |
| 20260505002457 | 77 | 142 | 0.0 | 6.0 | 0.00 | 0.00 | 0.00 | 66 | 1009.9 |
| 20260505002358 | 77 | 142 | 2.0 | 6.0 | 0.00 | 0.00 | 0.00 | 66 | 1009.9 |
| 20260505002258 | 77 | 141 | 1.0 | 6.0 | 0.00 | 0.00 | 0.00 | 66 | 1009.9 |
| 20260505002056 | 77 | 141 | 1.0 | 6.0 | 0.00 | 0.00 | 0.00 | 66 | 1009.8 |
| 20260505002008 | 77 | 141 | 0.0 | 6.0 | 0.00 | 0.00 | 0.00 | 66 | 1009.8 |
| 20260505001858 | 77 | 141 | 1.0 | 6.0 | 0.00 | 0.00 | 0.00 | 66 | 1009.8 |
| 20260505001756 | 77 | 141 | 1.0 | 6.0 | 0.00 | 0.00 | 0.00 | 66 | 1009.8 |
| 20260505001656 | 77 | 141 | 0.0 | 6.0 | 0.00 | 0.00 | 0.00 | 66 | 1009.8 |
| 20260505001559 | 77 | 139 | 3.0 | 6.0 | 0.00 | 0.00 | 0.00 | 66 | 1009.9 |
| 20260505001458 | 78 | 138 | 3.0 | 6.0 | 0.00 | 0.00 | 0.00 | 66 | 1009.9 |
| 20260505001357 | 78 | 227 | 1.0 | 6.0 | 0.00 | 0.00 | 0.00 | 66 | 1009.9 |
| 20260505001256 | 78 | 227 | 1.0 | 6.0 | 0.00 | 0.00 | 0.00 | 66 | 1009.9 |
| 20260505001157 | 78 | 174 | 1.0 | 6.0 | 0.00 | 0.00 | 0.00 | 66 | 1009.9 |
| 20260505001007 | 78 | 171 | 1.0 | 6.0 | 0.00 | 0.00 | 0.00 | 66 | 1009.9 |
| 20260505000856 | 78 | 187 | 1.0 | 6.0 | 0.00 | 0.00 | 0.00 | 66 | 1009.9 |
| 20260505000759 | 78 | 188 | 1.0 | 6.0 | 0.00 | 0.00 | 0.00 | 66 | 1009.9 |
| 20260505000658 | 78 | 188 | 0.0 | 6.0 | 0.00 | 0.00 | 0.00 | 66 | 1009.9 |
| 20260505000559 | 78 | 188 | 0.0 | 6.0 | 0.00 | 0.00 | 0.00 | 66 | 1010.0 |
| 20260505000458 | 78 | 188 | 0.0 | 6.0 | 0.00 | 0.00 | 0.00 | 66 | 1009.9 |
| 20260505000359 | 78 | 188 | 0.0 | 6.0 | 0.00 | 0.00 | 0.00 | 66 | 1009.9 |
| 20260505000258 | 78 | 188 | 3.0 | 6.0 | 0.00 | 0.00 | 0.00 | 66 | 1010.0 |
| 20260505000157 | 78 | 199 | 1.0 | 6.0 | 0.00 | 0.00 | 0.00 | 66 | 1009.9 |
| 20260505000056 | 78 | 201 | 1.0 | 6.0 | 0.00 | 0.00 | 0.00 | 66 | 1010.0 |
| 20260505000002 | 78 | 201 | 2.0 | 6.0 | 0.00 | 0.00 | 0.00 | 66 | 1009.9 |
| 20260504235858 | 78 | 185 | 0.0 | 6.0 | 0.00 | 0.00 | 0.00 | 66 | 1009.9 |
| 20260504235758 | 78 | 190 | 2.0 | 6.0 | 0.00 | 0.00 | 0.00 | 65 | 1010.0 |
| 20260504235656 | 78 | 169 | 5.0 | 5.0 | 0.00 | 0.00 | 0.00 | 65 | 1010.0 |
| 20260504235556 | 78 | 167 | 2.0 | 5.0 | 0.00 | 0.00 | 0.00 | 65 | 1010.0 |
| 20260504235458 | 78 | 167 | 1.0 | 5.0 | 0.00 | 0.00 | 0.00 | 65 | 1010.1 |
| 20260504235256 | 78 | 188 | 2.0 | 5.0 | 0.00 | 0.00 | 0.00 | 65 | 1010.1 |
| 20260504235157 | 78 | 188 | 3.0 | 5.0 | 0.00 | 0.00 | 0.00 | 66 | 1010.1 |
| 20260504235058 | 78 | 192 | 0.0 | 5.0 | 0.00 | 0.00 | 0.00 | 65 | 1010.1 |
| 20260504235002 | 78 | 192 | 2.0 | 5.0 | 0.00 | 0.00 | 0.00 | 65 | 1010.1 |
| 20260504234856 | 78 | 194 | 2.0 | 5.0 | 0.00 | 0.00 | 0.00 | 66 | 1010.1 |
| 20260504234757 | 78 | 197 | 2.0 | 5.0 | 0.00 | 0.00 | 0.00 | 66 | 1010.1 |
| 20260504234658 | 78 | 197 | 2.0 | 5.0 | 0.00 | 0.00 | 0.00 | 66 | 1010.1 |
| 20260504234458 | 78 | 207 | 0.0 | 5.0 | 0.00 | 0.00 | 0.00 | 66 | 1010.2 |
| 20260504234358 | 78 | 207 | 0.0 | 8.0 | 0.00 | 0.00 | 0.00 | 66 | 1010.1 |
| 20260504234257 | 78 | 207 | 4.0 | 8.0 | 0.00 | 0.00 | 0.00 | 66 | 1010.2 |
| 20260504234159 | 78 | 179 | 1.0 | 8.0 | 0.00 | 0.00 | 0.00 | 66 | 1010.2 |
| 20260504234058 | 78 | 173 | 1.0 | 8.0 | 0.00 | 0.00 | 0.00 | 66 | 1010.2 |
| 20260504233959 | 78 | 173 | 0.0 | 8.0 | 0.00 | 0.00 | 0.00 | 66 | 1010.2 |
| 20260504233858 | 78 | 173 | 0.0 | 8.0 | 0.00 | 0.00 | 0.00 | 66 | 1010.1 |
| 20260504233759 | 78 | 173 | 0.0 | 8.0 | 0.00 | 0.00 | 0.00 | 65 | 1010.2 |
| 20260504233658 | 78 | 174 | 0.0 | 8.0 | 0.00 | 0.00 | 0.00 | 65 | 1010.2 |
| 20260504233557 | 78 | 174 | 3.0 | 8.0 | 0.00 | 0.00 | 0.00 | 65 | 1010.2 |
| 20260504233458 | 78 | 172 | 4.0 | 7.0 | 0.00 | 0.00 | 0.00 | 65 | 1010.2 |
| 20260504233359 | 78 | 185 | 2.0 | 7.0 | 0.00 | 0.00 | 0.00 | 65 | 1010.2 |
| 20260504233256 | 78 | 185 | 0.0 | 7.0 | 0.00 | 0.00 | 0.00 | 65 | 1010.2 |
| 20260504233157 | 78 | 185 | 1.0 | 7.0 | 0.00 | 0.00 | 0.00 | 65 | 1010.2 |
| 20260504233056 | 78 | 185 | 1.0 | 7.0 | 0.00 | 0.00 | 0.00 | 65 | 1010.3 |
| 20260504232959 | 78 | 187 | 2.0 | 7.0 | 0.00 | 0.00 | 0.00 | 65 | 1010.4 |
| 20260504232858 | 78 | 178 | 1.0 | 6.0 | 0.00 | 0.00 | 0.00 | 65 | 1010.3 |
| 20260504232759 | 78 | 178 | 0.0 | 6.0 | 0.00 | 0.00 | 0.00 | 65 | 1010.4 |
| 20260504232557 | 78 | 213 | 2.0 | 6.0 | 0.00 | 0.00 | 0.00 | 65 | 1010.4 |
| 20260504232500 | 78 | 227 | 0.0 | 7.0 | 0.00 | 0.00 | 0.00 | 66 | 1010.3 |
| 20260504232358 | 78 | 227 | 1.0 | 7.0 | 0.00 | 0.00 | 0.00 | 66 | 1010.3 |
| 20260504232258 | 78 | 227 | 0.0 | 7.0 | 0.00 | 0.00 | 0.00 | 66 | 1010.3 |
| 20260504232158 | 78 | 227 | 2.0 | 7.0 | 0.00 | 0.00 | 0.00 | 65 | 1010.3 |
| 20260504232056 | 78 | 227 | 1.0 | 7.0 | 0.00 | 0.00 | 0.00 | 66 | 1010.3 |
| 20260504231958 | 78 | 227 | 0.0 | 7.0 | 0.00 | 0.00 | 0.00 | 66 | 1010.3 |
| 20260504231858 | 78 | 227 | 0.0 | 7.0 | 0.00 | 0.00 | 0.00 | 65 | 1010.4 |
| 20260504231758 | 78 | 219 | 1.0 | 7.0 | 0.00 | 0.00 | 0.00 | 65 | 1010.3 |
| 20260504231558 | 78 | 162 | 1.0 | 5.0 | 0.00 | 0.00 | 0.00 | 65 | 1010.4 |
| 20260504231458 | 78 | 173 | 1.0 | 5.0 | 0.00 | 0.00 | 0.00 | 65 | 1010.3 |
| 20260504231258 | 78 | 250 | 1.0 | 5.0 | 0.00 | 0.00 | 0.00 | 65 | 1010.5 |
| 20260504231158 | 78 | 212 | 1.0 | 5.0 | 0.00 | 0.00 | 0.00 | 66 | 1010.4 |
| 20260504231057 | 78 | 214 | 2.0 | 5.0 | 0.00 | 0.00 | 0.00 | 66 | 1010.5 |
| 20260504230758 | 78 | 250 | 1.0 | 6.0 | 0.00 | 0.00 | 0.00 | 66 | 1010.5 |
| 20260504230658 | 78 | 250 | 1.0 | 7.0 | 0.00 | 0.00 | 0.00 | 65 | 1010.5 |
| 20260504230358 | 78 | 176 | 2.0 | 7.0 | 0.00 | 0.00 | 0.00 | 65 | 1010.5 |
| 20260504230258 | 78 | 176 | 1.0 | 7.0 | 0.00 | 0.00 | 0.00 | 65 | 1010.6 |
| 20260504230158 | 78 | 173 | 2.0 | 7.0 | 0.00 | 0.00 | 0.00 | 65 | 1010.6 |
| 20260504230002 | 78 | 200 | 4.0 | 7.0 | 0.00 | 0.00 | 0.00 | 65 | 1010.6 |
| 20260504225858 | 78 | 183 | 3.0 | 7.0 | 0.00 | 0.00 | 0.00 | 65 | 1010.7 |
| 20260504225758 | 78 | 201 | 3.0 | 6.0 | 0.00 | 0.00 | 0.00 | 65 | 1010.7 |
| 20260504225459 | 78 | 258 | 4.0 | 5.0 | 0.00 | 0.00 | 0.00 | 65 | 1010.7 |
| 20260504225358 | 78 | 222 | 2.0 | 4.0 | 0.00 | 0.00 | 0.00 | 65 | 1010.6 |
| 20260504225258 | 78 | 223 | 1.0 | 4.0 | 0.00 | 0.00 | 0.00 | 65 | 1010.6 |
| 20260504225158 | 78 | 223 | 0.0 | 4.0 | 0.00 | 0.00 | 0.00 | 65 | 1010.6 |
| 20260504225056 | 78 | 227 | 2.0 | 4.0 | 0.00 | 0.00 | 0.00 | 65 | 1010.6 |
| 20260504224959 | 78 | 227 | 0.0 | 4.0 | 0.00 | 0.00 | 0.00 | 65 | 1010.6 |
| 20260504224858 | 78 | 227 | 1.0 | 4.0 | 0.00 | 0.00 | 0.00 | 65 | 1010.6 |
| 20260504224758 | 78 | 227 | 2.0 | 4.0 | 0.00 | 0.00 | 0.00 | 65 | 1010.6 |
| 20260504224658 | 78 | 227 | 2.0 | 4.0 | 0.00 | 0.00 | 0.00 | 65 | 1010.6 |
| 20260504224500 | 79 | 227 | 2.0 | 5.0 | 0.00 | 0.00 | 0.00 | 65 | 1010.6 |
| 20260504224358 | 79 | 227 | 2.0 | 5.0 | 0.00 | 0.00 | 0.00 | 65 | 1010.6 |
| 20260504224258 | 79 | 227 | 2.0 | 5.0 | 0.00 | 0.00 | 0.00 | 65 | 1010.6 |
| 20260504224158 | 79 | 228 | 1.0 | 5.0 | 0.00 | 0.00 | 0.00 | 65 | 1010.6 |
| 20260504224058 | 79 | 228 | 1.0 | 5.0 | 0.00 | 0.00 | 0.00 | 65 | 1010.7 |
| 20260504223857 | 79 | 230 | 0.0 | 6.0 | 0.00 | 0.00 | 0.00 | 65 | 1010.7 |
| 20260504223758 | 79 | 230 | 0.0 | 6.0 | 0.00 | 0.00 | 0.00 | 65 | 1010.8 |
| 20260504223658 | 79 | 187 | 3.0 | 6.0 | 0.00 | 0.00 | 0.00 | 65 | 1010.7 |
| 20260504223558 | 79 | 183 | 1.0 | 6.0 | 0.00 | 0.00 | 0.00 | 65 | 1010.7 |
| 20260504223458 | 79 | 183 | 0.0 | 6.0 | 0.00 | 0.00 | 0.00 | 64 | 1010.7 |
| 20260504223358 | 79 | 183 | 0.0 | 6.0 | 0.00 | 0.00 | 0.00 | 64 | 1010.7 |
| 20260504223256 | 79 | 183 | 1.0 | 6.0 | 0.00 | 0.00 | 0.00 | 64 | 1010.7 |
| 20260504222959 | 79 | 201 | 1.0 | 6.0 | 0.00 | 0.00 | 0.00 | 64 | 1010.9 |
| 20260504222858 | 79 | 171 | 3.0 | 6.0 | 0.00 | 0.00 | 0.00 | 64 | 1010.9 |
| 20260504222757 | 79 | 166 | 2.0 | 8.0 | 0.00 | 0.00 | 0.00 | 64 | 1010.8 |
| 20260504222658 | 79 | 155 | 2.0 | 8.0 | 0.00 | 0.00 | 0.00 | 64 | 1010.7 |
| 20260504222559 | 79 | 206 | 1.0 | 8.0 | 0.00 | 0.00 | 0.00 | 65 | 1010.7 |
| 20260504222458 | 79 | 206 | 1.0 | 8.0 | 0.00 | 0.00 | 0.00 | 64 | 1010.7 |
| 20260504222359 | 79 | 206 | 0.0 | 8.0 | 0.00 | 0.00 | 0.00 | 64 | 1010.8 |
| 20260504222258 | 79 | 206 | 2.0 | 8.0 | 0.00 | 0.00 | 0.00 | 64 | 1010.9 |
| 20260504222158 | 79 | 187 | 0.0 | 8.0 | 0.00 | 0.00 | 0.00 | 64 | 1010.9 |
| 20260504222057 | 79 | 187 | 1.0 | 8.0 | 0.00 | 0.00 | 0.00 | 64 | 1010.9 |
| 20260504222000 | 79 | 175 | 3.0 | 8.0 | 0.00 | 0.00 | 0.00 | 64 | 1010.9 |
| 20260504221858 | 79 | 163 | 5.0 | 7.0 | 0.00 | 0.00 | 0.00 | 64 | 1011.0 |
| 20260504221759 | 79 | 240 | 1.0 | 5.0 | 0.00 | 0.00 | 0.00 | 64 | 1011.0 |
| 20260504221658 | 79 | 240 | 0.0 | 5.0 | 0.00 | 0.00 | 0.00 | 64 | 1011.0 |
| 20260504221456 | 79 | 240 | 2.0 | 5.0 | 0.00 | 0.00 | 0.00 | 64 | 1011.0 |
| 20260504221058 | 79 | 240 | 0.0 | 5.0 | 0.00 | 0.00 | 0.00 | 64 | 1011.1 |
| 20260504220858 | 79 | 280 | 3.0 | 5.0 | 0.00 | 0.00 | 0.00 | 64 | 1011.2 |
| 20260504220758 | 79 | 227 | 4.0 | 4.0 | 0.00 | 0.00 | 0.00 | 64 | 1011.2 |
| 20260504220658 | 79 | 153 | 1.0 | 6.0 | 0.00 | 0.00 | 0.00 | 64 | 1011.2 |
| 20260504220558 | 79 | 153 | 1.0 | 6.0 | 0.00 | 0.00 | 0.00 | 64 | 1011.2 |
| 20260504220458 | 79 | 153 | 2.0 | 6.0 | 0.00 | 0.00 | 0.00 | 64 | 1011.2 |
| 20260504220357 | 79 | 227 | 1.0 | 6.0 | 0.00 | 0.00 | 0.00 | 64 | 1011.2 |
| 20260504220257 | 79 | 227 | 0.0 | 6.0 | 0.00 | 0.00 | 0.00 | 64 | 1011.3 |
| 20260504220157 | 79 | 227 | 0.0 | 6.0 | 0.00 | 0.00 | 0.00 | 64 | 1011.2 |
| 20260504220056 | 79 | 227 | 0.0 | 6.0 | 0.00 | 0.00 | 0.00 | 64 | 1011.2 |
| 20260504220001 | 79 | 227 | 3.0 | 6.0 | 0.00 | 0.00 | 0.00 | 63 | 1011.2 |
| 20260504215856 | 79 | 245 | 1.0 | 6.0 | 0.00 | 0.00 | 0.00 | 63 | 1011.2 |
| 20260504215756 | 79 | 240 | 0.0 | 5.0 | 0.00 | 0.00 | 0.00 | 63 | 1011.2 |
| 20260504215458 | 79 | 231 | 4.0 | 5.0 | 0.00 | 0.00 | 0.00 | 63 | 1011.3 |
| 20260504215358 | 79 | 193 | 2.0 | 5.0 | 0.00 | 0.00 | 0.00 | 63 | 1011.2 |
| 20260504215256 | 79 | 193 | 0.0 | 5.0 | 0.00 | 0.00 | 0.00 | 63 | 1011.2 |
| 20260504215157 | 79 | 193 | 2.0 | 5.0 | 0.00 | 0.00 | 0.00 | 63 | 1011.2 |
| 20260504215058 | 79 | 217 | 0.0 | 5.0 | 0.00 | 0.00 | 0.00 | 63 | 1011.3 |
| 20260504214959 | 79 | 217 | 1.0 | 5.0 | 0.00 | 0.00 | 0.00 | 63 | 1011.3 |
| 20260504214858 | 80 | 112 | 1.0 | 4.0 | 0.00 | 0.00 | 0.00 | 63 | 1011.3 |
| 20260504214759 | 80 | 187 | 2.0 | 4.0 | 0.00 | 0.00 | 0.00 | 63 | 1011.3 |
| 20260504214559 | 80 | 187 | 1.0 | 5.0 | 0.00 | 0.00 | 0.00 | 63 | 1011.3 |
| 20260504214358 | 80 | 187 | 2.0 | 5.0 | 0.00 | 0.00 | 0.00 | 63 | 1011.4 |
| 20260504214057 | 80 | 187 | 1.0 | 5.0 | 0.00 | 0.00 | 0.00 | 62 | 1011.3 |
| 20260504213958 | 80 | 187 | 4.0 | 6.0 | 0.00 | 0.00 | 0.00 | 62 | 1011.4 |
| 20260504213858 | 80 | 245 | 4.0 | 6.0 | 0.00 | 0.00 | 0.00 | 62 | 1011.4 |
| 20260504213757 | 80 | 178 | 2.0 | 6.0 | 0.00 | 0.00 | 0.00 | 62 | 1011.4 |
| 20260504213656 | 80 | 178 | 1.0 | 6.0 | 0.00 | 0.00 | 0.00 | 62 | 1011.4 |
| 20260504213558 | 80 | 178 | 1.0 | 6.0 | 0.00 | 0.00 | 0.00 | 62 | 1011.4 |
| 20260504213458 | 80 | 188 | 1.0 | 6.0 | 0.00 | 0.00 | 0.00 | 62 | 1011.4 |
| 20260504213356 | 80 | 146 | 0.0 | 6.0 | 0.00 | 0.00 | 0.00 | 61 | 1011.4 |
| 20260504213156 | 80 | 234 | 2.0 | 6.0 | 0.00 | 0.00 | 0.00 | 61 | 1011.4 |
| 20260504212858 | 80 | 219 | 3.0 | 6.0 | 0.00 | 0.00 | 0.00 | 60 | 1011.3 |
| 20260504212759 | 81 | 159 | 3.0 | 6.0 | 0.00 | 0.00 | 0.00 | 60 | 1011.4 |
| 20260504212658 | 81 | 158 | 4.0 | 6.0 | 0.00 | 0.00 | 0.00 | 60 | 1011.4 |
| 20260504212557 | 81 | 181 | 5.0 | 6.0 | 0.00 | 0.00 | 0.00 | 61 | 1011.4 |
| 20260504212458 | 81 | 213 | 1.0 | 6.0 | 0.00 | 0.00 | 0.00 | 60 | 1011.4 |
| 20260504212358 | 81 | 168 | 4.0 | 6.0 | 0.00 | 0.00 | 0.00 | 60 | 1011.4 |
| 20260504212156 | 81 | 211 | 3.0 | 6.0 | 0.00 | 0.00 | 0.00 | 60 | 1011.4 |
| 20260504212056 | 81 | 182 | 1.0 | 6.0 | 0.00 | 0.00 | 0.00 | 61 | 1011.5 |
| 20260504212000 | 81 | 174 | 1.0 | 6.0 | 0.00 | 0.00 | 0.00 | 61 | 1011.5 |
| 20260504211557 | 82 | 174 | 1.0 | 6.0 | 0.00 | 0.00 | 0.00 | 59 | 1011.5 |
| 20260504211458 | 82 | 222 | 3.0 | 6.0 | 0.00 | 0.00 | 0.00 | 60 | 1011.5 |
| 20260504211256 | 82 | 221 | 4.0 | 6.0 | 0.00 | 0.00 | 0.00 | 59 | 1011.4 |
| 20260504211157 | 82 | 193 | 2.0 | 4.0 | 0.00 | 0.00 | 0.00 | 59 | 1011.5 |
| 20260504211001 | 82 | 187 | 1.0 | 4.0 | 0.00 | 0.00 | 0.00 | 60 | 1011.5 |
| 20260504210856 | 82 | 187 | 1.0 | 4.0 | 0.00 | 0.00 | 0.00 | 60 | 1011.5 |
| 20260504210758 | 82 | 187 | 0.0 | 4.0 | 0.00 | 0.00 | 0.00 | 59 | 1011.5 |
| 20260504210659 | 82 | 185 | 0.0 | 3.0 | 0.00 | 0.00 | 0.00 | 60 | 1011.5 |
| 20260504210558 | 82 | 185 | 1.0 | 3.0 | 0.00 | 0.00 | 0.00 | 60 | 1011.5 |
| 20260504210456 | 82 | 185 | 0.0 | 3.0 | 0.00 | 0.00 | 0.00 | 60 | 1011.5 |
| 20260504210356 | 82 | 185 | 0.0 | 3.0 | 0.00 | 0.00 | 0.00 | 59 | 1011.6 |
| 20260504210258 | 82 | 187 | 0.0 | 3.0 | 0.00 | 0.00 | 0.00 | 60 | 1011.6 |
| 20260504210158 | 82 | 187 | 0.0 | 3.0 | 0.00 | 0.00 | 0.00 | 59 | 1011.7 |
| 20260504205958 | 82 | 187 | 1.0 | 4.0 | 0.00 | 0.00 | 0.00 | 59 | 1011.8 |
| 20260504205858 | 82 | 187 | 1.0 | 4.0 | 0.00 | 0.00 | 0.00 | 59 | 1011.8 |
| 20260504205656 | 82 | 190 | 3.0 | 4.0 | 0.00 | 0.00 | 0.00 | 59 | 1011.8 |
| 20260504205556 | 82 | 191 | 1.0 | 4.0 | 0.00 | 0.00 | 0.00 | 59 | 1011.8 |
| 20260504205458 | 82 | 191 | 0.0 | 4.0 | 0.00 | 0.00 | 0.00 | 59 | 1011.9 |
| 20260504205356 | 82 | 191 | 1.0 | 4.0 | 0.00 | 0.00 | 0.00 | 59 | 1011.9 |
| 20260504205256 | 82 | 191 | 0.0 | 4.0 | 0.00 | 0.00 | 0.00 | 58 | 1012.0 |
| 20260504205156 | 83 | 191 | 3.0 | 4.0 | 0.00 | 0.00 | 0.00 | 58 | 1011.9 |
| 20260504205056 | 83 | 187 | 1.0 | 4.0 | 0.00 | 0.00 | 0.00 | 59 | 1012.0 |
| 20260504204959 | 83 | 189 | 2.0 | 4.0 | 0.00 | 0.00 | 0.00 | 59 | 1011.9 |
| 20260504204856 | 83 | 144 | 1.0 | 4.0 | 0.00 | 0.00 | 0.00 | 59 | 1011.9 |
| 20260504204757 | 83 | 144 | 1.0 | 4.0 | 0.00 | 0.00 | 0.00 | 59 | 1011.8 |
| 20260504204558 | 83 | 143 | 0.0 | 4.0 | 0.00 | 0.00 | 0.00 | 59 | 1011.8 |
| 20260504204458 | 83 | 143 | 2.0 | 4.0 | 0.00 | 0.00 | 0.00 | 58 | 1011.8 |
| 20260504204258 | 83 | 186 | 0.0 | 4.0 | 0.00 | 0.00 | 0.00 | 58 | 1011.9 |
| 20260504203957 | 83 | 188 | 0.0 | 4.0 | 0.00 | 0.00 | 0.00 | 58 | 1011.8 |
| 20260504203858 | 83 | 172 | 1.0 | 4.0 | 0.00 | 0.00 | 0.00 | 58 | 1011.8 |
| 20260504203758 | 83 | 194 | 1.0 | 4.0 | 0.00 | 0.00 | 0.00 | 59 | 1011.8 |
| 20260504203557 | 82 | 194 | 2.0 | 5.0 | 0.00 | 0.00 | 0.00 | 58 | 1011.9 |
| 20260504203458 | 82 | 194 | 1.0 | 5.0 | 0.00 | 0.00 | 0.00 | 58 | 1011.9 |
| 20260504203258 | 82 | 194 | 1.0 | 5.0 | 0.00 | 0.00 | 0.00 | 57 | 1012.0 |
| 20260504203156 | 83 | 201 | 4.0 | 5.0 | 0.00 | 0.00 | 0.00 | 57 | 1012.0 |
| 20260504203056 | 83 | 209 | 1.0 | 5.0 | 0.00 | 0.00 | 0.00 | 57 | 1012.0 |
| 20260504202958 | 83 | 209 | 0.0 | 5.0 | 0.00 | 0.00 | 0.00 | 57 | 1012.1 |
| 20260504202858 | 83 | 230 | 2.0 | 5.0 | 0.00 | 0.00 | 0.00 | 57 | 1012.0 |
| 20260504202757 | 83 | 179 | 0.0 | 5.0 | 0.00 | 0.00 | 0.00 | 57 | 1012.0 |
| 20260504202558 | 83 | 179 | 1.0 | 5.0 | 0.00 | 0.00 | 0.00 | 57 | 1012.1 |
| 20260504202458 | 83 | 178 | 0.0 | 5.0 | 0.00 | 0.00 | 0.00 | 57 | 1012.1 |
| 20260504202258 | 83 | 186 | 0.0 | 5.0 | 0.00 | 0.00 | 0.00 | 57 | 1012.1 |
| 20260504202159 | 83 | 183 | 0.0 | 5.0 | 0.00 | 0.00 | 0.00 | 57 | 1012.1 |
| 20260504202000 | 83 | 200 | 1.0 | 3.0 | 0.00 | 0.00 | 0.00 | 57 | 1012.3 |
| 20260504201856 | 83 | 200 | 0.0 | 3.0 | 0.00 | 0.00 | 0.00 | 57 | 1012.2 |
| 20260504201759 | 83 | 200 | 2.0 | 3.0 | 0.00 | 0.00 | 0.00 | 57 | 1012.3 |
| 20260504201658 | 83 | 200 | 1.0 | 4.0 | 0.00 | 0.00 | 0.00 | 57 | 1012.3 |
| 20260504201559 | 83 | 200 | 1.0 | 4.0 | 0.00 | 0.00 | 0.00 | 57 | 1012.3 |
| 20260504201458 | 83 | 200 | 0.0 | 4.0 | 0.00 | 0.00 | 0.00 | 57 | 1012.4 |
| 20260504201256 | 84 | 200 | 0.0 | 5.0 | 0.00 | 0.00 | 0.00 | 57 | 1012.3 |
| 20260504201156 | 84 | 194 | 0.0 | 5.0 | 0.00 | 0.00 | 0.00 | 56 | 1012.3 |
| 20260504201056 | 84 | 194 | 1.0 | 5.0 | 0.00 | 0.00 | 0.00 | 57 | 1012.4 |
| 20260504200958 | 84 | 194 | 0.0 | 5.0 | 0.00 | 0.00 | 0.00 | 57 | 1012.4 |
| 20260504200858 | 84 | 194 | 2.0 | 5.0 | 0.00 | 0.00 | 0.00 | 56 | 1012.4 |
| 20260504200756 | 84 | 189 | 1.0 | 5.0 | 0.00 | 0.00 | 0.00 | 57 | 1012.4 |
| 20260504200556 | 84 | 189 | 1.0 | 5.0 | 0.00 | 0.00 | 0.00 | 56 | 1012.4 |
| 20260504200358 | 84 | 261 | 3.0 | 4.0 | 0.00 | 0.00 | 0.00 | 57 | 1012.4 |
| 20260504200156 | 84 | 288 | 2.0 | 4.0 | 0.00 | 0.00 | 0.00 | 57 | 1012.5 |
| 20260504200058 | 84 | 319 | 0.0 | 5.0 | 0.00 | 0.00 | 0.00 | 56 | 1012.5 |
| 20260504200002 | 84 | 319 | 0.0 | 5.0 | 0.00 | 0.00 | 0.00 | 57 | 1012.5 |
| 20260504195759 | 84 | 250 | 2.0 | 5.0 | 0.00 | 0.00 | 0.00 | 57 | 1012.5 |
| 20260504195658 | 84 | 250 | 0.0 | 5.0 | 0.00 | 0.00 | 0.00 | 56 | 1012.5 |
| 20260504195558 | 84 | 316 | 0.0 | 5.0 | 0.00 | 0.00 | 0.00 | 56 | 1012.6 |
| 20260504195457 | 84 | 212 | 0.0 | 5.0 | 0.00 | 0.00 | 0.00 | 55 | 1012.5 |
| 20260504195258 | 84 | 264 | 1.0 | 5.0 | 0.00 | 0.00 | 0.00 | 56 | 1012.5 |
| 20260504195158 | 84 | 235 | 4.0 | 4.0 | 0.00 | 0.00 | 0.00 | 56 | 1012.6 |
| 20260504195056 | 84 | 137 | 0.0 | 3.0 | 0.00 | 0.00 | 0.00 | 56 | 1012.5 |
| 20260504195001 | 84 | 137 | 0.0 | 3.0 | 0.00 | 0.00 | 0.00 | 57 | 1012.6 |
| 20260504194856 | 84 | 137 | 1.0 | 3.0 | 0.00 | 0.00 | 0.00 | 56 | 1012.6 |
| 20260504194756 | 84 | 136 | 1.0 | 3.0 | 0.00 | 0.00 | 0.00 | 56 | 1012.7 |
| 20260504194659 | 84 | 136 | 2.0 | 5.0 | 0.00 | 0.00 | 0.00 | 57 | 1012.6 |
| 20260504194557 | 84 | 136 | 1.0 | 5.0 | 0.00 | 0.00 | 0.00 | 57 | 1012.6 |
| 20260504194458 | 84 | 154 | 0.0 | 5.0 | 0.00 | 0.00 | 0.00 | 58 | 1012.7 |
| 20260504194356 | 84 | 154 | 0.0 | 5.0 | 0.00 | 0.00 | 0.00 | 58 | 1012.8 |
| 20260504194256 | 84 | 154 | 2.0 | 5.0 | 0.00 | 0.00 | 0.00 | 58 | 1012.8 |
| 20260504194058 | 84 | 154 | 1.0 | 5.0 | 0.00 | 0.00 | 0.00 | 58 | 1012.7 |
| 20260504193959 | 83 | 154 | 0.0 | 5.0 | 0.00 | 0.00 | 0.00 | 57 | 1012.7 |
| 20260504193858 | 84 | 154 | 0.0 | 5.0 | 0.00 | 0.00 | 0.00 | 57 | 1012.7 |
| 20260504193759 | 84 | 166 | 3.0 | 4.0 | 0.00 | 0.00 | 0.00 | 58 | 1012.7 |
| 20260504193656 | 84 | 184 | 1.0 | 4.0 | 0.00 | 0.00 | 0.00 | 57 | 1012.7 |
| 20260504193556 | 84 | 184 | 0.0 | 4.0 | 0.00 | 0.00 | 0.00 | 57 | 1012.8 |
| 20260504193458 | 84 | 184 | 4.0 | 4.0 | 0.00 | 0.00 | 0.00 | 58 | 1012.7 |
| 20260504193258 | 83 | 148 | 0.0 | 6.0 | 0.00 | 0.00 | 0.00 | 58 | 1012.7 |
| 20260504193158 | 83 | 148 | 0.0 | 6.0 | 0.00 | 0.00 | 0.00 | 57 | 1012.7 |
| 20260504193056 | 83 | 198 | 0.0 | 6.0 | 0.00 | 0.00 | 0.00 | 57 | 1012.8 |
| 20260504193000 | 83 | 181 | 1.0 | 6.0 | 0.00 | 0.00 | 0.00 | 58 | 1012.8 |
| 20260504192856 | 83 | 181 | 0.0 | 6.0 | 0.00 | 0.00 | 0.00 | 58 | 1012.9 |
| 20260504192758 | 83 | 181 | 1.0 | 6.0 | 0.00 | 0.00 | 0.00 | 57 | 1012.8 |
| 20260504192656 | 83 | 181 | 1.0 | 6.0 | 0.00 | 0.00 | 0.00 | 57 | 1012.9 |
| 20260504192556 | 83 | 171 | 4.0 | 6.0 | 0.00 | 0.00 | 0.00 | 57 | 1012.9 |
| 20260504192456 | 83 | 170 | 3.0 | 5.0 | 0.00 | 0.00 | 0.00 | 57 | 1013.1 |
| 20260504192358 | 83 | 240 | 3.0 | 3.0 | 0.00 | 0.00 | 0.00 | 58 | 1013.1 |
| 20260504192257 | 83 | 259 | 2.0 | 3.0 | 0.00 | 0.00 | 0.00 | 59 | 1013.1 |
| 20260504192158 | 83 | 259 | 1.0 | 3.0 | 0.00 | 0.00 | 0.00 | 58 | 1013.2 |
| 20260504192058 | 83 | 259 | 2.0 | 3.0 | 0.00 | 0.00 | 0.00 | 58 | 1013.1 |
| 20260504192000 | 83 | 260 | 1.0 | 3.0 | 0.00 | 0.00 | 0.00 | 58 | 1013.1 |
| 20260504191858 | 83 | 260 | 0.0 | 4.0 | 0.00 | 0.00 | 0.00 | 58 | 1013.1 |